PTI737 NZAA-KLAX

Flight info

Callsign PTI737
Flight time 12h 23m
Altitude 35000
Route AKLOM B200 FICKY GOATZ2
Aircraft B737/M-SDE2E3FGHIRWXY/LB1

Departure

Time 2026-04-21 09:17
Airport Auckland International Airport (NZAA)

Arrival

Time 2026-04-21 21:40
Airport Los Angeles International Airport (KLAX)
Time Latitude Longitude Altitude Speed Heading
2026-04-21 08:54 -37.00755 174.77906 24 ft 0 kts 265°
2026-04-21 09:09 -37.00755 174.77910 24 ft 3 kts 265°
2026-04-21 09:09 -37.00753 174.77943 29 ft 4 kts 268°
2026-04-21 09:09 -37.00752 174.77976 28 ft 4 kts 262°
2026-04-21 09:09 -37.00743 174.78004 30 ft 4 kts 218°
2026-04-21 09:10 -37.00725 174.78016 28 ft 0 kts 194°
2026-04-21 09:11 -37.00758 174.78007 27 ft 11 kts 187°
2026-04-21 09:12 -37.00833 174.78028 26 ft 14 kts 161°
2026-04-21 09:12 -37.00954 174.78080 26 ft 19 kts 160°
2026-04-21 09:12 -37.01031 174.78183 26 ft 18 kts 79°
2026-04-21 09:12 -37.01009 174.78337 24 ft 21 kts 104°
2026-04-21 09:13 -37.01033 174.78535 24 ft 23 kts 76°
2026-04-21 09:13 -37.00978 174.78746 27 ft 25 kts 71°
2026-04-21 09:13 -37.00924 174.78950 24 ft 24 kts 71°
2026-04-21 09:13 -37.00870 174.79139 25 ft 23 kts 69°
2026-04-21 09:14 -37.00815 174.79321 24 ft 22 kts 69°
2026-04-21 09:14 -37.00771 174.79502 24 ft 21 kts 70°
2026-04-21 09:14 -37.00722 174.79676 24 ft 21 kts 71°
2026-04-21 09:14 -37.00675 174.79844 28 ft 20 kts 71°
2026-04-21 09:15 -37.00629 174.80007 27 ft 20 kts 71°
2026-04-21 09:15 -37.00585 174.80166 24 ft 19 kts 72°
2026-04-21 09:15 -37.00546 174.80320 28 ft 18 kts 72°
2026-04-21 09:15 -37.00574 174.80461 24 ft 18 kts 129°
2026-04-21 09:16 -37.00667 174.80533 28 ft 17 kts 220°
2026-04-21 09:16 -37.00742 174.80297 24 ft 59 kts 251°
2026-04-21 09:16 -37.00954 174.79546 28 ft 122 kts 250°
2026-04-21 09:16 -37.01292 174.78323 30 ft 174 kts 251°
2026-04-21 09:17 -37.01660 174.76862 693 ft 170 kts 254°
2026-04-21 09:17 -37.02021 174.75359 1172 ft 195 kts 246°
2026-04-21 09:17 -37.02501 174.73697 1694 ft 207 kts 246°
2026-04-21 09:17 -37.03019 174.71914 2031 ft 229 kts 246°
2026-04-21 09:18 -37.03571 174.69983 2649 ft 235 kts 247°
2026-04-21 09:18 -37.04114 174.68060 3303 ft 241 kts 247°
2026-04-21 09:18 -37.04700 174.65979 3675 ft 264 kts 246°
2026-04-21 09:18 -37.05306 174.63801 4570 ft 264 kts 247°
2026-04-21 09:19 -37.05908 174.61634 5471 ft 264 kts 247°
2026-04-21 09:19 -37.06516 174.59443 6248 ft 268 kts 247°
2026-04-21 09:19 -37.07367 174.57382 6963 ft 266 kts 225°
2026-04-21 09:19 -37.08797 174.55976 7740 ft 263 kts 204°
2026-04-21 09:20 -37.10541 174.55237 8457 ft 266 kts 186°
2026-04-21 09:20 -37.12351 174.55507 9354 ft 263 kts 164°
2026-04-21 09:20 -37.14130 174.56208 9903 ft 274 kts 163°
2026-04-21 09:20 -37.15933 174.57006 10619 ft 275 kts 156°
2026-04-21 09:21 -37.17471 174.58471 11265 ft 286 kts 131°
2026-04-21 09:21 -37.18422 174.60688 11858 ft 299 kts 108°
2026-04-21 09:21 -37.18572 174.63403 12018 ft 329 kts 82°
2026-04-21 09:21 -37.17941 174.66235 12464 ft 343 kts 74°
2026-04-21 09:22 -37.17161 174.69061 13315 ft 342 kts 72°
2026-04-21 09:22 -37.16362 174.71894 13945 ft 348 kts 72°
2026-04-21 09:22 -37.15567 174.74786 14527 ft 352 kts 72°
2026-04-21 09:22 -37.14782 174.77704 15203 ft 354 kts 73°
2026-04-21 09:23 -37.13999 174.80642 15868 ft 357 kts 73°
2026-04-21 09:23 -37.13211 174.83604 16509 ft 360 kts 73°
2026-04-21 09:23 -37.12416 174.86585 17143 ft 363 kts 72°
2026-04-21 09:23 -37.11608 174.89610 17674 ft 369 kts 72°
2026-04-21 09:24 -37.10785 174.92686 18211 ft 375 kts 72°
2026-04-21 09:24 -37.09955 174.95787 18810 ft 376 kts 72°
2026-04-21 09:24 -37.09123 174.98892 19448 ft 376 kts 72°
2026-04-21 09:24 -37.08287 175.02005 20046 ft 378 kts 72°
2026-04-21 09:25 -37.07446 175.05137 20614 ft 381 kts 72°
2026-04-21 09:25 -37.06598 175.08292 21172 ft 384 kts 72°
2026-04-21 09:25 -37.05743 175.11468 21733 ft 386 kts 72°
2026-04-21 09:25 -37.04883 175.14659 22309 ft 389 kts 72°
2026-04-21 09:26 -37.04015 175.17875 22853 ft 391 kts 73°
2026-04-21 09:26 -37.03141 175.21108 23403 ft 394 kts 73°
2026-04-21 09:26 -37.02261 175.24362 23859 ft 396 kts 73°
2026-04-21 09:26 -37.01375 175.27637 24294 ft 398 kts 73°
2026-04-21 09:27 -37.00483 175.30925 24734 ft 401 kts 72°
2026-04-21 09:27 -36.99582 175.34238 25172 ft 403 kts 72°
2026-04-21 09:27 -36.98431 175.37442 25573 ft 407 kts 60°
2026-04-21 09:27 -36.96937 175.40462 26018 ft 409 kts 58°
2026-04-21 09:28 -36.95360 175.43437 26438 ft 412 kts 56°
2026-04-21 09:28 -36.93748 175.46429 26751 ft 417 kts 56°
2026-04-21 09:28 -36.92125 175.49450 27119 ft 420 kts 56°
2026-04-21 09:28 -36.90503 175.52503 27543 ft 422 kts 56°
2026-04-21 09:29 -36.88887 175.55573 27908 ft 425 kts 56°
2026-04-21 09:29 -36.87265 175.58679 28243 ft 428 kts 56°
2026-04-21 09:29 -36.85640 175.61802 28615 ft 430 kts 56°
2026-04-21 09:29 -36.84010 175.64943 28986 ft 432 kts 56°
2026-04-21 09:30 -36.82374 175.68096 29322 ft 434 kts 56°
2026-04-21 09:30 -36.80727 175.71269 29638 ft 436 kts 56°
2026-04-21 09:30 -36.79074 175.74451 29933 ft 439 kts 56°
2026-04-21 09:30 -36.77408 175.77654 30175 ft 441 kts 56°
2026-04-21 09:31 -36.75734 175.80869 30409 ft 443 kts 55°
2026-04-21 09:31 -36.74048 175.84103 30586 ft 447 kts 54°
2026-04-21 09:31 -36.72345 175.87365 30786 ft 450 kts 54°
2026-04-21 09:31 -36.70636 175.90637 31012 ft 451 kts 54°
2026-04-21 09:32 -36.68918 175.93922 31228 ft 453 kts 54°
2026-04-21 09:32 -36.67192 175.97220 31407 ft 456 kts 53°
2026-04-21 09:32 -36.65451 176.00542 31515 ft 460 kts 53°
2026-04-21 09:32 -36.63718 176.03846 31683 ft 463 kts 53°
2026-04-21 09:33 -36.61954 176.07206 31909 ft 464 kts 52°
2026-04-21 09:33 -36.60186 176.10571 32120 ft 465 kts 52°
2026-04-21 09:33 -36.58410 176.13950 32284 ft 468 kts 52°
2026-04-21 09:33 -36.56626 176.17339 32458 ft 470 kts 52°
2026-04-21 09:34 -36.54830 176.20745 32604 ft 472 kts 51°
2026-04-21 09:34 -36.53023 176.24170 32711 ft 475 kts 51°
2026-04-21 09:34 -36.51203 176.27615 32859 ft 477 kts 51°
2026-04-21 09:34 -36.49381 176.31062 33048 ft 478 kts 50°
2026-04-21 09:35 -36.47552 176.34520 33219 ft 480 kts 50°
2026-04-21 09:35 -36.45715 176.37990 33364 ft 481 kts 50°
2026-04-21 09:35 -36.43870 176.41469 33475 ft 483 kts 49°
2026-04-21 09:35 -36.42013 176.44966 33498 ft 488 kts 49°
2026-04-21 09:36 -36.40141 176.48486 33645 ft 489 kts 49°
2026-04-21 09:36 -36.38273 176.52002 33903 ft 487 kts 49°
2026-04-21 09:36 -36.36413 176.55503 34133 ft 485 kts 48°
2026-04-21 09:36 -36.34553 176.58997 34290 ft 485 kts 48°
2026-04-21 09:37 -36.32690 176.62489 34416 ft 486 kts 48°
2026-04-21 09:37 -36.30820 176.65989 34561 ft 486 kts 48°
2026-04-21 09:37 -36.28956 176.69476 34736 ft 486 kts 48°
2026-04-21 09:37 -36.27087 176.72968 34765 ft 486 kts 48°
2026-04-21 09:38 -36.23362 176.79924 34768 ft 482 kts 48°
2026-04-21 09:38 -36.19674 176.86799 34742 ft 477 kts 47°
2026-04-21 09:39 -36.16630 176.92457 34771 ft 475 kts 47°
2026-04-21 09:39 -36.12959 176.99258 34778 ft 477 kts 45°
2026-04-21 09:40 -36.09240 177.06128 34785 ft 484 kts 46°
2026-04-21 09:40 -36.05480 177.13071 34776 ft 488 kts 46°
2026-04-21 09:41 -36.01698 177.20053 34773 ft 490 kts 46°
2026-04-21 09:41 -35.97901 177.27047 34763 ft 491 kts 46°
2026-04-21 09:42 -35.94098 177.34037 34740 ft 490 kts 45°
2026-04-21 09:42 -35.90310 177.40987 34760 ft 488 kts 45°
2026-04-21 09:43 -35.86526 177.47911 34766 ft 486 kts 45°
2026-04-21 09:43 -35.82753 177.54799 34767 ft 484 kts 45°
2026-04-21 09:44 -35.78990 177.61655 34767 ft 482 kts 45°
2026-04-21 09:44 -35.75232 177.68487 34769 ft 481 kts 45°
2026-04-21 09:45 -35.71482 177.75295 34733 ft 479 kts 43°
2026-04-21 09:45 -35.67741 177.82069 34759 ft 479 kts 43°
2026-04-21 09:46 -35.63992 177.88842 34775 ft 480 kts 43°
2026-04-21 09:46 -35.60226 177.95633 34774 ft 481 kts 43°
2026-04-21 09:47 -35.56447 178.02436 34773 ft 483 kts 43°
2026-04-21 09:47 -35.52651 178.09260 34734 ft 485 kts 42°
2026-04-21 09:48 -35.48846 178.16090 34766 ft 485 kts 41°
2026-04-21 09:48 -35.45035 178.22915 34765 ft 485 kts 40°
2026-04-21 09:49 -35.41213 178.29744 34761 ft 486 kts 40°
2026-04-21 09:49 -35.37386 178.36572 34762 ft 486 kts 40°
2026-04-21 09:50 -35.33337 178.43046 34775 ft 468 kts 32°
2026-04-21 09:50 -35.28856 178.48734 34737 ft 462 kts 28°
2026-04-21 09:51 -35.24337 178.54301 34754 ft 461 kts 29°
2026-04-21 09:51 -35.19895 178.59891 34757 ft 461 kts 29°
2026-04-21 09:52 -35.15464 178.65550 34760 ft 460 kts 29°
2026-04-21 09:52 -35.11049 178.71210 34762 ft 460 kts 29°
2026-04-21 09:53 -35.06638 178.76858 34766 ft 459 kts 29°
2026-04-21 09:53 -35.02201 178.82525 34767 ft 459 kts 29°
2026-04-21 09:54 -34.97793 178.88144 34692 ft 458 kts 28°
2026-04-21 09:54 -34.93430 178.93698 34765 ft 456 kts 28°
2026-04-21 09:55 -34.89037 178.99276 34766 ft 456 kts 28°
2026-04-21 09:55 -34.84632 179.04857 34770 ft 457 kts 28°
2026-04-21 09:56 -34.80214 179.10448 34774 ft 459 kts 28°
2026-04-21 09:56 -34.75785 179.16045 34772 ft 460 kts 28°
2026-04-21 09:57 -34.71345 179.21651 34760 ft 460 kts 28°
2026-04-21 09:57 -34.66906 179.27247 34772 ft 459 kts 27°
2026-04-21 09:58 -34.62468 179.32831 34771 ft 459 kts 27°
2026-04-21 09:58 -34.58028 179.38407 34773 ft 459 kts 27°
2026-04-21 09:59 -34.53584 179.43977 34781 ft 459 kts 27°
2026-04-21 09:59 -34.49139 179.49541 34785 ft 459 kts 27°
2026-04-21 10:00 -34.44701 179.55091 34786 ft 457 kts 26°
2026-04-21 10:00 -34.40275 179.60615 34792 ft 456 kts 26°
2026-04-21 10:01 -34.35858 179.66118 34786 ft 455 kts 26°
2026-04-21 10:01 -34.31448 179.71600 34793 ft 454 kts 25°
2026-04-21 10:02 -34.24845 179.79794 34796 ft 453 kts 25°
2026-04-21 10:03 -34.20451 179.85236 34735 ft 452 kts 25°
2026-04-21 10:03 -34.16072 179.90655 34798 ft 450 kts 25°
2026-04-21 10:04 -34.11695 179.96056 34805 ft 450 kts 25°
2026-04-21 10:04 -34.07313 -179.98546 34767 ft 451 kts 25°
2026-04-21 10:05 -34.02927 -179.93150 34806 ft 451 kts 25°
2026-04-21 10:05 -33.98525 -179.87744 34819 ft 453 kts 25°
2026-04-21 10:06 -33.94099 -179.82317 34792 ft 455 kts 25°
2026-04-21 10:06 -33.89660 -179.76879 34813 ft 456 kts 25°
2026-04-21 10:07 -33.85203 -179.71427 34820 ft 458 kts 25°
2026-04-21 10:07 -33.80730 -179.65963 34823 ft 459 kts 25°
2026-04-21 10:08 -33.76276 -179.60531 34827 ft 459 kts 25°
2026-04-21 10:08 -33.71791 -179.55067 34826 ft 459 kts 25°
2026-04-21 10:09 -33.67310 -179.49618 34775 ft 458 kts 25°
2026-04-21 10:09 -33.62844 -179.44193 34818 ft 456 kts 25°
2026-04-21 10:10 -33.58383 -179.38790 34839 ft 455 kts 25°
2026-04-21 10:10 -33.53924 -179.33399 34835 ft 455 kts 25°
2026-04-21 10:11 -33.49468 -179.28019 34836 ft 455 kts 25°
2026-04-21 10:11 -33.45006 -179.22640 34790 ft 455 kts 25°
2026-04-21 10:12 -33.40550 -179.17273 34831 ft 455 kts 25°
2026-04-21 10:12 -33.36083 -179.11906 34848 ft 456 kts 25°
2026-04-21 10:13 -33.31599 -179.06527 34849 ft 457 kts 25°
2026-04-21 10:13 -33.27097 -179.01134 34848 ft 459 kts 25°
2026-04-21 10:14 -33.22578 -178.95726 34854 ft 460 kts 25°
2026-04-21 10:14 -33.18049 -178.90313 34852 ft 461 kts 25°
2026-04-21 10:15 -33.13512 -178.84898 34795 ft 461 kts 26°
2026-04-21 10:15 -33.08988 -178.79503 34844 ft 460 kts 26°
2026-04-21 10:16 -33.04465 -178.74124 34861 ft 459 kts 26°
2026-04-21 10:16 -32.99947 -178.68760 34861 ft 458 kts 25°
2026-04-21 10:17 -32.95435 -178.63410 34863 ft 457 kts 25°
2026-04-21 10:17 -32.90957 -178.58109 34867 ft 457 kts 25°
2026-04-21 10:18 -32.86454 -178.52785 34841 ft 455 kts 25°
2026-04-21 10:18 -32.81965 -178.47485 34871 ft 454 kts 25°
2026-04-21 10:19 -32.77492 -178.42213 34869 ft 453 kts 26°
2026-04-21 10:19 -32.73016 -178.36949 34873 ft 452 kts 26°
2026-04-21 10:20 -32.68542 -178.31696 34881 ft 453 kts 26°
2026-04-21 10:20 -32.64061 -178.26441 34881 ft 453 kts 26°
2026-04-21 10:21 -32.59572 -178.21184 34845 ft 454 kts 26°
2026-04-21 10:21 -32.55084 -178.15933 34872 ft 454 kts 26°
2026-04-21 10:22 -32.50585 -178.10679 34892 ft 454 kts 26°
2026-04-21 10:22 -32.46074 -178.05419 34886 ft 455 kts 26°
2026-04-21 10:23 -32.41554 -178.00157 34890 ft 457 kts 26°
2026-04-21 10:23 -32.37015 -177.94881 34902 ft 458 kts 26°
2026-04-21 10:24 -32.32459 -177.89592 34864 ft 460 kts 27°
2026-04-21 10:24 -32.28634 -177.85156 34895 ft 460 kts 27°
2026-04-21 10:25 -32.24053 -177.79851 34899 ft 461 kts 27°
2026-04-21 10:25 -32.19466 -177.74546 34899 ft 462 kts 27°
2026-04-21 10:26 -32.14871 -177.69241 34883 ft 462 kts 27°
2026-04-21 10:26 -32.10305 -177.63976 34898 ft 462 kts 27°
2026-04-21 10:27 -32.05710 -177.58686 34909 ft 462 kts 27°
2026-04-21 10:27 -32.01120 -177.53409 34902 ft 460 kts 27°
2026-04-21 10:28 -31.96538 -177.48150 34908 ft 459 kts 27°
2026-04-21 10:28 -31.91965 -177.42909 34911 ft 458 kts 27°
2026-04-21 10:29 -31.87400 -177.37686 34915 ft 457 kts 27°
2026-04-21 10:29 -31.82843 -177.32480 34878 ft 456 kts 27°
2026-04-21 10:30 -31.78296 -177.27292 34904 ft 455 kts 28°
2026-04-21 10:30 -31.73758 -177.22122 34911 ft 453 kts 28°
2026-04-21 10:31 -31.69223 -177.16965 34914 ft 454 kts 28°
2026-04-21 10:31 -31.64681 -177.11808 34921 ft 455 kts 28°
2026-04-21 10:32 -31.60126 -177.06644 34925 ft 456 kts 28°
2026-04-21 10:32 -31.55555 -177.01467 34928 ft 457 kts 28°
2026-04-21 10:33 -31.50973 -176.96284 34925 ft 458 kts 28°
2026-04-21 10:33 -31.46379 -176.91095 34913 ft 459 kts 29°
2026-04-21 10:34 -31.41778 -176.85905 34926 ft 460 kts 29°
2026-04-21 10:34 -31.37131 -176.80671 34935 ft 461 kts 29°
2026-04-21 10:35 -31.32530 -176.75498 34937 ft 463 kts 29°
2026-04-21 10:35 -31.27883 -176.70280 34937 ft 464 kts 29°
2026-04-21 10:36 -31.23227 -176.65057 34939 ft 464 kts 29°
2026-04-21 10:36 -31.18564 -176.59834 34902 ft 464 kts 29°
2026-04-21 10:37 -31.13909 -176.54626 34921 ft 463 kts 29°
2026-04-21 10:37 -31.09253 -176.49427 34936 ft 463 kts 29°
2026-04-21 10:38 -31.04592 -176.44232 34951 ft 464 kts 29°
2026-04-21 10:38 -30.99923 -176.39035 34946 ft 464 kts 29°
2026-04-21 10:39 -30.95249 -176.33839 34948 ft 465 kts 29°
2026-04-21 10:39 -30.90569 -176.28643 34947 ft 465 kts 29°
2026-04-21 10:40 -30.85888 -176.23452 34942 ft 464 kts 30°
2026-04-21 10:40 -30.81210 -176.18272 34948 ft 464 kts 30°
2026-04-21 10:41 -30.76537 -176.13105 34944 ft 463 kts 30°
2026-04-21 10:41 -30.71866 -176.07948 34949 ft 463 kts 30°
2026-04-21 10:42 -30.67194 -176.02799 34955 ft 463 kts 30°
2026-04-21 10:42 -30.62518 -175.97653 34956 ft 463 kts 30°
2026-04-21 10:43 -30.57839 -175.92509 34954 ft 463 kts 30°
2026-04-21 10:43 -30.53159 -175.87371 34960 ft 463 kts 30°
2026-04-21 10:44 -30.48444 -175.82202 34958 ft 463 kts 30°
2026-04-21 10:44 -30.43787 -175.77103 34961 ft 464 kts 30°
2026-04-21 10:45 -30.39097 -175.71976 34961 ft 464 kts 30°
2026-04-21 10:45 -30.34404 -175.66852 34963 ft 464 kts 30°
2026-04-21 10:46 -30.29710 -175.61735 34961 ft 463 kts 30°
2026-04-21 10:46 -30.25019 -175.56627 34959 ft 463 kts 30°
2026-04-21 10:47 -30.20325 -175.51524 34970 ft 463 kts 30°
2026-04-21 10:47 -30.15627 -175.46423 34971 ft 463 kts 30°
2026-04-21 10:48 -30.10930 -175.41330 34944 ft 463 kts 30°
2026-04-21 10:48 -30.06231 -175.36240 34964 ft 463 kts 30°
2026-04-21 10:49 -30.01529 -175.31155 34952 ft 463 kts 30°
2026-04-21 10:49 -29.96848 -175.26024 34968 ft 466 kts 31°
2026-04-21 10:50 -29.92210 -175.20783 34974 ft 467 kts 32°
2026-04-21 10:50 -29.87575 -175.15532 34975 ft 467 kts 32°
2026-04-21 10:51 -29.82926 -175.10290 34980 ft 468 kts 32°
2026-04-21 10:51 -29.78266 -175.05057 34975 ft 468 kts 32°
2026-04-21 10:52 -29.73599 -174.99827 34967 ft 468 kts 32°
2026-04-21 10:52 -29.68934 -174.94605 34974 ft 468 kts 32°
2026-04-21 10:53 -29.64263 -174.89385 34975 ft 468 kts 32°
2026-04-21 10:53 -29.59588 -174.84168 34978 ft 469 kts 32°
2026-04-21 10:54 -29.54907 -174.78950 34979 ft 469 kts 32°
2026-04-21 10:54 -29.50222 -174.73735 34978 ft 469 kts 32°
2026-04-21 10:55 -29.45535 -174.68525 34982 ft 469 kts 32°
2026-04-21 10:55 -29.40847 -174.63320 34963 ft 468 kts 33°
2026-04-21 10:56 -29.36164 -174.58128 34972 ft 468 kts 33°
2026-04-21 10:56 -29.31478 -174.52940 34982 ft 468 kts 33°
2026-04-21 10:57 -29.26790 -174.47757 34982 ft 469 kts 33°
2026-04-21 10:57 -29.22094 -174.42573 34981 ft 469 kts 33°
2026-04-21 10:58 -29.17396 -174.37393 34981 ft 469 kts 33°
2026-04-21 10:58 -29.12693 -174.32214 34956 ft 469 kts 33°
2026-04-21 10:59 -29.08024 -174.27079 34959 ft 469 kts 33°
2026-04-21 10:59 -29.03322 -174.21914 34978 ft 469 kts 33°
2026-04-21 11:00 -28.98617 -174.16754 34983 ft 469 kts 33°
2026-04-21 11:00 -28.93903 -174.11591 34983 ft 470 kts 33°
2026-04-21 11:01 -28.89183 -174.06429 34981 ft 470 kts 33°
2026-04-21 11:01 -28.84457 -174.01265 34974 ft 471 kts 33°
2026-04-21 11:02 -28.77357 -173.93521 34969 ft 471 kts 33°
2026-04-21 11:02 -28.72622 -173.88365 34961 ft 471 kts 34°
2026-04-21 11:03 -28.67886 -173.83215 34972 ft 471 kts 34°
2026-04-21 11:03 -28.63148 -173.78070 34981 ft 471 kts 34°
2026-04-21 11:04 -28.58403 -173.72924 34979 ft 471 kts 34°
2026-04-21 11:04 -28.53655 -173.67782 34971 ft 471 kts 34°
2026-04-21 11:05 -28.48905 -173.62643 34963 ft 471 kts 34°
2026-04-21 11:05 -28.44157 -173.57513 34970 ft 471 kts 34°
2026-04-21 11:06 -28.39409 -173.52391 34951 ft 471 kts 34°
2026-04-21 11:06 -28.34661 -173.47275 34965 ft 470 kts 34°
2026-04-21 11:07 -28.30714 -173.43027 34973 ft 470 kts 34°
2026-04-21 11:07 -28.25961 -173.37918 34970 ft 471 kts 34°
2026-04-21 11:08 -28.21201 -173.32808 34971 ft 471 kts 34°
2026-04-21 11:08 -28.16441 -173.27705 34962 ft 471 kts 35°
2026-04-21 11:09 -28.11678 -173.22605 34969 ft 471 kts 35°
2026-04-21 11:09 -28.06913 -173.17509 34969 ft 471 kts 35°
2026-04-21 11:10 -28.02139 -173.12410 34963 ft 472 kts 35°
2026-04-21 11:10 -27.97360 -173.07313 34975 ft 472 kts 35°
2026-04-21 11:11 -27.92576 -173.02216 34972 ft 473 kts 35°
2026-04-21 11:11 -27.87787 -172.97122 34948 ft 473 kts 35°
2026-04-21 11:12 -27.82997 -172.92031 34965 ft 473 kts 35°
2026-04-21 11:12 -27.78207 -172.86947 34970 ft 472 kts 35°
2026-04-21 11:13 -27.73417 -172.81870 34965 ft 472 kts 35°
2026-04-21 11:13 -27.68624 -172.76797 34950 ft 472 kts 36°
2026-04-21 11:14 -27.63833 -172.71731 34969 ft 472 kts 36°
2026-04-21 11:14 -27.59042 -172.66673 34970 ft 472 kts 36°
2026-04-21 11:15 -27.54246 -172.61616 34973 ft 472 kts 36°
2026-04-21 11:15 -27.49452 -172.56566 34973 ft 472 kts 36°
2026-04-21 11:16 -27.44653 -172.51518 34975 ft 472 kts 36°
2026-04-21 11:16 -27.39853 -172.46475 34975 ft 472 kts 36°
2026-04-21 11:17 -27.35051 -172.41436 34976 ft 472 kts 36°
2026-04-21 11:17 -27.30244 -172.36399 34968 ft 473 kts 36°
2026-04-21 11:18 -27.25432 -172.31362 34958 ft 473 kts 36°
2026-04-21 11:18 -27.20618 -172.26329 34974 ft 473 kts 36°
2026-04-21 11:19 -27.15799 -172.21298 34977 ft 473 kts 36°
2026-04-21 11:19 -27.10975 -172.16268 34977 ft 474 kts 36°
2026-04-21 11:20 -27.06144 -172.11236 34981 ft 474 kts 36°
2026-04-21 11:20 -27.01307 -172.06204 34981 ft 474 kts 36°
2026-04-21 11:21 -26.96466 -172.01174 34979 ft 474 kts 36°
2026-04-21 11:21 -26.91625 -171.96150 34974 ft 474 kts 36°
2026-04-21 11:22 -26.86785 -171.91134 34989 ft 474 kts 36°
2026-04-21 11:22 -26.81947 -171.86125 34985 ft 474 kts 36°
2026-04-21 11:23 -26.77110 -171.81124 34986 ft 473 kts 36°
2026-04-21 11:23 -26.72274 -171.76131 34991 ft 473 kts 36°
2026-04-21 11:24 -26.67443 -171.71148 34992 ft 473 kts 36°
2026-04-21 11:24 -26.62641 -171.66201 34994 ft 472 kts 36°
2026-04-21 11:25 -26.57812 -171.61233 34992 ft 472 kts 37°
2026-04-21 11:25 -26.52985 -171.56272 34996 ft 471 kts 37°
2026-04-21 11:26 -26.48157 -171.51316 34998 ft 471 kts 37°
2026-04-21 11:26 -26.43326 -171.46364 35000 ft 472 kts 36°
2026-04-21 11:27 -26.38493 -171.41415 35000 ft 472 kts 36°
2026-04-21 11:27 -26.33655 -171.36466 35000 ft 472 kts 36°
2026-04-21 11:28 -26.28814 -171.31521 34986 ft 472 kts 37°
2026-04-21 11:28 -26.23972 -171.26580 34993 ft 472 kts 37°
2026-04-21 11:29 -26.19129 -171.21645 35003 ft 472 kts 37°
2026-04-21 11:29 -26.14283 -171.16711 35009 ft 472 kts 37°
2026-04-21 11:30 -26.09432 -171.11779 35012 ft 472 kts 37°
2026-04-21 11:30 -26.04577 -171.06848 35010 ft 473 kts 37°
2026-04-21 11:31 -25.99719 -171.01920 35011 ft 473 kts 37°
2026-04-21 11:31 -25.94859 -170.96996 35006 ft 473 kts 37°
2026-04-21 11:32 -25.90001 -170.92079 35009 ft 472 kts 37°
2026-04-21 11:32 -25.85144 -170.87170 35007 ft 472 kts 37°
2026-04-21 11:33 -25.80288 -170.82266 35019 ft 472 kts 37°
2026-04-21 11:33 -25.75429 -170.77366 35016 ft 472 kts 37°
2026-04-21 11:34 -25.70573 -170.72474 35019 ft 472 kts 37°
2026-04-21 11:34 -25.65713 -170.67584 35019 ft 472 kts 37°
2026-04-21 11:35 -25.60852 -170.62699 35015 ft 471 kts 37°
2026-04-21 11:35 -25.55995 -170.57823 35024 ft 471 kts 37°
2026-04-21 11:36 -25.51139 -170.52953 35016 ft 471 kts 37°
2026-04-21 11:36 -25.46313 -170.48120 35022 ft 471 kts 37°
2026-04-21 11:37 -25.41453 -170.43258 35024 ft 471 kts 37°
2026-04-21 11:37 -25.36587 -170.38395 35022 ft 472 kts 37°
2026-04-21 11:38 -25.31713 -170.33530 35018 ft 472 kts 38°
2026-04-21 11:38 -25.26836 -170.28667 35028 ft 472 kts 38°
2026-04-21 11:39 -25.21951 -170.23802 35026 ft 473 kts 38°
2026-04-21 11:39 -25.17066 -170.18941 35030 ft 473 kts 38°
2026-04-21 11:40 -25.12172 -170.14078 35019 ft 474 kts 38°
2026-04-21 11:40 -25.07273 -170.09214 35029 ft 474 kts 38°
2026-04-21 11:41 -25.02371 -170.04351 35027 ft 474 kts 38°
2026-04-21 11:41 -24.97464 -169.99493 35024 ft 474 kts 38°
2026-04-21 11:42 -24.92555 -169.94640 35024 ft 474 kts 38°
2026-04-21 11:42 -24.87645 -169.89791 35031 ft 474 kts 38°
2026-04-21 11:43 -24.82737 -169.84947 35030 ft 474 kts 38°
2026-04-21 11:43 -24.77834 -169.80112 35036 ft 473 kts 38°
2026-04-21 11:44 -24.72926 -169.75279 35025 ft 473 kts 38°
2026-04-21 11:44 -24.68022 -169.70455 35042 ft 473 kts 38°
2026-04-21 11:45 -24.63115 -169.65633 35020 ft 473 kts 38°
2026-04-21 11:45 -24.58206 -169.60814 35035 ft 474 kts 38°
2026-04-21 11:46 -24.53286 -169.55990 35040 ft 474 kts 38°
2026-04-21 11:46 -24.48355 -169.51161 35032 ft 475 kts 38°
2026-04-21 11:47 -24.43413 -169.46326 35032 ft 476 kts 38°
2026-04-21 11:47 -24.38461 -169.41486 35033 ft 477 kts 38°
2026-04-21 11:48 -24.33499 -169.36642 35034 ft 478 kts 38°
2026-04-21 11:48 -24.28528 -169.31794 35043 ft 479 kts 38°
2026-04-21 11:49 -24.23550 -169.26944 35041 ft 479 kts 38°
2026-04-21 11:49 -24.18569 -169.22097 35033 ft 479 kts 38°
2026-04-21 11:50 -24.13582 -169.17250 35039 ft 479 kts 38°
2026-04-21 11:50 -24.08594 -169.12406 35041 ft 479 kts 38°
2026-04-21 11:51 -24.04449 -169.08386 35040 ft 479 kts 38°
2026-04-21 11:51 -23.99465 -169.03557 35034 ft 478 kts 38°
2026-04-21 11:52 -23.94487 -168.98739 35038 ft 478 kts 39°
2026-04-21 11:52 -23.89512 -168.93928 35042 ft 477 kts 39°
2026-04-21 11:53 -23.84543 -168.89128 35042 ft 476 kts 39°
2026-04-21 11:53 -23.79580 -168.84339 35038 ft 476 kts 39°
2026-04-21 11:54 -23.74618 -168.79557 35044 ft 476 kts 39°
2026-04-21 11:54 -23.69659 -168.74782 35036 ft 475 kts 39°
2026-04-21 11:55 -23.64700 -168.70013 35030 ft 475 kts 39°
2026-04-21 11:55 -23.59741 -168.65248 35037 ft 475 kts 40°
2026-04-21 11:56 -23.54785 -168.60491 35034 ft 475 kts 40°
2026-04-21 11:56 -23.49829 -168.55739 35035 ft 474 kts 40°
2026-04-21 11:57 -23.44874 -168.50994 35036 ft 474 kts 40°
2026-04-21 11:57 -23.39951 -168.46284 35037 ft 474 kts 40°
2026-04-21 11:58 -23.34994 -168.41545 35035 ft 474 kts 40°
2026-04-21 11:58 -23.30002 -168.36779 35023 ft 474 kts 40°
2026-04-21 11:59 -23.25072 -168.32077 35030 ft 475 kts 40°
2026-04-21 11:59 -23.20106 -168.27345 35034 ft 475 kts 40°
2026-04-21 12:00 -23.15099 -168.22579 35034 ft 476 kts 40°
2026-04-21 12:00 -23.10151 -168.17873 35037 ft 476 kts 40°
2026-04-21 12:01 -23.05156 -168.13129 35035 ft 477 kts 40°
2026-04-21 12:01 -23.00160 -168.08388 35032 ft 477 kts 40°
2026-04-21 12:02 -22.92654 -168.01274 35032 ft 477 kts 40°
2026-04-21 12:03 -22.87649 -167.96537 35032 ft 477 kts 40°
2026-04-21 12:03 -22.82648 -167.91808 35031 ft 477 kts 40°
2026-04-21 12:04 -22.77648 -167.87085 35033 ft 477 kts 40°
2026-04-21 12:04 -22.72650 -167.82369 35031 ft 476 kts 40°
2026-04-21 12:05 -22.67654 -167.77659 35033 ft 476 kts 40°
2026-04-21 12:05 -22.62660 -167.72955 35027 ft 476 kts 40°
2026-04-21 12:06 -22.57675 -167.68265 35036 ft 475 kts 40°
2026-04-21 12:06 -22.52691 -167.63581 35030 ft 474 kts 40°
2026-04-21 12:07 -22.47718 -167.58911 35032 ft 473 kts 39°
2026-04-21 12:07 -22.42748 -167.54249 35030 ft 473 kts 39°
2026-04-21 12:08 -22.37782 -167.49595 35031 ft 472 kts 39°
2026-04-21 12:08 -22.32816 -167.44947 35034 ft 472 kts 39°
2026-04-21 12:09 -22.27847 -167.40299 35032 ft 472 kts 40°
2026-04-21 12:09 -22.22879 -167.35658 35035 ft 472 kts 40°
2026-04-21 12:10 -22.17910 -167.31019 35029 ft 472 kts 40°
2026-04-21 12:10 -22.12942 -167.26386 35030 ft 472 kts 40°
2026-04-21 12:11 -22.07974 -167.21758 35030 ft 472 kts 39°
2026-04-21 12:11 -22.03001 -167.17129 35029 ft 472 kts 39°
2026-04-21 12:12 -21.98061 -167.12536 35027 ft 472 kts 39°
2026-04-21 12:12 -21.93083 -167.07912 35026 ft 472 kts 39°
2026-04-21 12:13 -21.88110 -167.03296 35026 ft 472 kts 39°
2026-04-21 12:13 -21.83135 -166.98683 35026 ft 472 kts 39°
2026-04-21 12:14 -21.78157 -166.94072 35026 ft 472 kts 39°
2026-04-21 12:14 -21.73184 -166.89470 35025 ft 471 kts 39°
2026-04-21 12:15 -21.68210 -166.84872 35023 ft 471 kts 39°
2026-04-21 12:15 -21.63237 -166.80277 35028 ft 471 kts 39°
2026-04-21 12:16 -21.58260 -166.75686 35023 ft 472 kts 40°
2026-04-21 12:16 -21.53277 -166.71091 35028 ft 472 kts 40°
2026-04-21 12:17 -21.48286 -166.66494 35029 ft 473 kts 40°
2026-04-21 12:17 -21.43290 -166.61896 35025 ft 473 kts 40°
2026-04-21 12:18 -21.38289 -166.57299 35025 ft 474 kts 40°
2026-04-21 12:18 -21.33281 -166.52700 35025 ft 474 kts 40°
2026-04-21 12:19 -21.28272 -166.48103 35023 ft 474 kts 40°
2026-04-21 12:19 -21.23261 -166.43509 35019 ft 474 kts 40°
2026-04-21 12:20 -21.18248 -166.38918 35015 ft 474 kts 40°
2026-04-21 12:20 -21.13240 -166.34334 35016 ft 473 kts 40°
2026-04-21 12:21 -21.08235 -166.29759 35015 ft 473 kts 40°
2026-04-21 12:21 -21.03235 -166.25192 35017 ft 472 kts 40°
2026-04-21 12:22 -20.98236 -166.20630 35020 ft 472 kts 40°
2026-04-21 12:22 -20.93238 -166.16074 35016 ft 472 kts 40°
2026-04-21 12:23 -20.88247 -166.11527 35022 ft 471 kts 40°
2026-04-21 12:23 -20.83254 -166.06983 35019 ft 471 kts 40°
2026-04-21 12:24 -20.78259 -166.02441 35019 ft 471 kts 40°
2026-04-21 12:24 -20.73261 -165.97900 35016 ft 471 kts 40°
2026-04-21 12:25 -20.68265 -165.93366 35016 ft 471 kts 40°
2026-04-21 12:25 -20.63264 -165.88831 35016 ft 472 kts 40°
2026-04-21 12:26 -20.58262 -165.84299 35014 ft 472 kts 40°
2026-04-21 12:26 -20.53256 -165.79768 35012 ft 472 kts 40°
2026-04-21 12:27 -20.48251 -165.75241 35017 ft 472 kts 40°
2026-04-21 12:27 -20.43241 -165.70715 35014 ft 472 kts 40°
2026-04-21 12:28 -20.38230 -165.66190 35012 ft 472 kts 40°
2026-04-21 12:28 -20.33218 -165.61670 35011 ft 472 kts 40°
2026-04-21 12:29 -20.28204 -165.57150 35015 ft 472 kts 40°
2026-04-21 12:29 -20.23189 -165.52635 35012 ft 472 kts 40°
2026-04-21 12:30 -20.18174 -165.48123 35010 ft 472 kts 40°
2026-04-21 12:30 -20.13161 -165.43616 35014 ft 472 kts 40°
2026-04-21 12:31 -20.08147 -165.39112 35012 ft 472 kts 40°
2026-04-21 12:31 -20.03132 -165.34611 35006 ft 471 kts 40°
2026-04-21 12:32 -19.98119 -165.30117 35009 ft 471 kts 40°
2026-04-21 12:32 -19.93105 -165.25630 35009 ft 471 kts 40°
2026-04-21 12:33 -19.88090 -165.21146 35009 ft 471 kts 40°
2026-04-21 12:33 -19.83077 -165.16665 35003 ft 471 kts 40°
2026-04-21 12:34 -19.78067 -165.12191 35004 ft 470 kts 40°
2026-04-21 12:34 -19.73060 -165.07721 35004 ft 470 kts 40°
2026-04-21 12:35 -19.68052 -165.03256 35005 ft 470 kts 40°
2026-04-21 12:35 -19.63891 -164.99549 35001 ft 470 kts 40°
2026-04-21 12:36 -19.58886 -164.95093 35003 ft 470 kts 40°
2026-04-21 12:36 -19.53880 -164.90640 35002 ft 470 kts 40°
2026-04-21 12:37 -19.48875 -164.86191 35002 ft 470 kts 40°
2026-04-21 12:37 -19.43870 -164.81746 35004 ft 469 kts 41°
2026-04-21 12:38 -19.38864 -164.77305 34995 ft 469 kts 41°
2026-04-21 12:38 -19.33857 -164.72865 34997 ft 469 kts 41°
2026-04-21 12:39 -19.28851 -164.68431 34996 ft 469 kts 41°
2026-04-21 12:39 -19.23879 -164.64030 34998 ft 469 kts 41°
2026-04-21 12:40 -19.18873 -164.59602 34995 ft 469 kts 40°
2026-04-21 12:40 -19.13832 -164.55147 34995 ft 469 kts 40°
2026-04-21 12:41 -19.08861 -164.50758 35000 ft 469 kts 41°
2026-04-21 12:41 -19.03853 -164.46340 34996 ft 469 kts 41°
2026-04-21 12:42 -18.98847 -164.41927 34997 ft 469 kts 41°
2026-04-21 12:42 -18.93840 -164.37517 34994 ft 469 kts 41°
2026-04-21 12:43 -18.88832 -164.33110 34994 ft 468 kts 41°
2026-04-21 12:43 -18.83823 -164.28705 34995 ft 468 kts 41°
2026-04-21 12:44 -18.78816 -164.24305 34994 ft 468 kts 41°
2026-04-21 12:44 -18.73807 -164.19907 34993 ft 468 kts 41°
2026-04-21 12:45 -18.68797 -164.15512 34991 ft 468 kts 41°
2026-04-21 12:45 -18.63787 -164.11120 34992 ft 468 kts 41°
2026-04-21 12:46 -18.58776 -164.06731 34989 ft 468 kts 41°
2026-04-21 12:46 -18.53766 -164.02346 34989 ft 468 kts 41°
2026-04-21 12:47 -18.48756 -163.97965 34989 ft 468 kts 41°
2026-04-21 12:47 -18.43744 -163.93586 34990 ft 468 kts 41°
2026-04-21 12:48 -18.38731 -163.89209 34989 ft 468 kts 41°
2026-04-21 12:48 -18.33718 -163.84835 34984 ft 468 kts 41°
2026-04-21 12:49 -18.28704 -163.80464 34986 ft 468 kts 41°
2026-04-21 12:49 -18.23692 -163.76098 34983 ft 468 kts 41°
2026-04-21 12:50 -18.18683 -163.71738 34987 ft 467 kts 41°
2026-04-21 12:50 -18.13672 -163.67379 34983 ft 467 kts 41°
2026-04-21 12:51 -18.08659 -163.63023 34983 ft 467 kts 41°
2026-04-21 12:51 -18.03646 -163.58670 34987 ft 467 kts 41°
2026-04-21 12:52 -17.98633 -163.54319 34979 ft 467 kts 41°
2026-04-21 12:52 -17.93617 -163.49970 34981 ft 467 kts 41°
2026-04-21 12:53 -17.88603 -163.45625 34986 ft 467 kts 41°
2026-04-21 12:53 -17.83589 -163.41285 34977 ft 467 kts 41°
2026-04-21 12:54 -17.78572 -163.36945 34984 ft 467 kts 41°
2026-04-21 12:54 -17.73554 -163.32606 34983 ft 467 kts 41°
2026-04-21 12:55 -17.68537 -163.28272 34981 ft 467 kts 41°
2026-04-21 12:55 -17.63517 -163.23940 34981 ft 467 kts 41°
2026-04-21 12:56 -17.58498 -163.19610 34983 ft 467 kts 41°
2026-04-21 12:56 -17.53478 -163.15284 34979 ft 467 kts 41°
2026-04-21 12:57 -17.48459 -163.10961 34979 ft 467 kts 41°
2026-04-21 12:57 -17.43441 -163.06642 34980 ft 467 kts 41°
2026-04-21 12:58 -17.38422 -163.02326 34977 ft 467 kts 41°
2026-04-21 12:58 -17.33436 -162.98042 34978 ft 467 kts 41°
2026-04-21 12:59 -17.28382 -162.93701 34980 ft 467 kts 41°
2026-04-21 12:59 -17.23359 -162.89391 34980 ft 467 kts 41°
2026-04-21 13:00 -17.18367 -162.85110 34977 ft 467 kts 41°
2026-04-21 13:00 -17.13340 -162.80803 34982 ft 467 kts 41°
2026-04-21 13:01 -17.08306 -162.76492 34978 ft 468 kts 41°
2026-04-21 13:01 -17.03269 -162.72182 34975 ft 468 kts 41°
2026-04-21 13:02 -16.98229 -162.67873 34976 ft 468 kts 41°
2026-04-21 13:02 -16.90664 -162.61411 34973 ft 468 kts 41°
2026-04-21 13:03 -16.85622 -162.57108 34975 ft 468 kts 41°
2026-04-21 13:03 -16.80581 -162.52808 34969 ft 468 kts 41°
2026-04-21 13:04 -16.75542 -162.48514 34972 ft 467 kts 41°
2026-04-21 13:04 -16.70509 -162.44227 34972 ft 467 kts 41°
2026-04-21 13:05 -16.65473 -162.39941 34967 ft 467 kts 41°
2026-04-21 13:05 -16.60439 -162.35660 34969 ft 467 kts 42°
2026-04-21 13:06 -16.55410 -162.31386 34962 ft 467 kts 42°
2026-04-21 13:06 -16.50380 -162.27114 34966 ft 466 kts 42°
2026-04-21 13:07 -16.45352 -162.22846 34966 ft 466 kts 42°
2026-04-21 13:07 -16.40323 -162.18580 34967 ft 466 kts 42°
2026-04-21 13:08 -16.35295 -162.14319 34964 ft 466 kts 42°
2026-04-21 13:08 -16.30264 -162.10058 34964 ft 466 kts 42°
2026-04-21 13:09 -16.25232 -162.05799 34965 ft 466 kts 42°
2026-04-21 13:09 -16.20200 -162.01543 34964 ft 466 kts 42°
2026-04-21 13:10 -16.15163 -161.97286 34967 ft 466 kts 42°
2026-04-21 13:10 -16.10124 -161.93029 34966 ft 467 kts 42°
2026-04-21 13:11 -16.05083 -161.88774 34964 ft 467 kts 43°
2026-04-21 13:11 -16.00038 -161.84518 34967 ft 467 kts 42°
2026-04-21 13:12 -15.94986 -161.80260 34961 ft 468 kts 42°
2026-04-21 13:12 -15.89934 -161.76003 34962 ft 468 kts 43°
2026-04-21 13:13 -15.84873 -161.71743 34963 ft 468 kts 43°
2026-04-21 13:13 -15.79811 -161.67484 34958 ft 468 kts 43°
2026-04-21 13:14 -15.74748 -161.63228 34958 ft 468 kts 43°
2026-04-21 13:14 -15.69683 -161.58973 34958 ft 468 kts 43°
2026-04-21 13:15 -15.64651 -161.54748 34959 ft 468 kts 43°
2026-04-21 13:15 -15.59551 -161.50469 34958 ft 468 kts 43°
2026-04-21 13:16 -15.54485 -161.46220 34961 ft 469 kts 43°
2026-04-21 13:16 -15.49445 -161.41997 34957 ft 469 kts 43°
2026-04-21 13:17 -15.44372 -161.37748 34955 ft 469 kts 43°
2026-04-21 13:17 -15.39295 -161.33500 34954 ft 469 kts 43°
2026-04-21 13:18 -15.34214 -161.29250 34950 ft 469 kts 43°
2026-04-21 13:18 -15.29137 -161.25006 34951 ft 469 kts 43°
2026-04-21 13:19 -15.24054 -161.20760 34950 ft 469 kts 43°
2026-04-21 13:19 -15.18974 -161.16520 34950 ft 469 kts 43°
2026-04-21 13:20 -15.13895 -161.12282 34952 ft 469 kts 43°
2026-04-21 13:20 -15.08814 -161.08046 34949 ft 469 kts 43°
2026-04-21 13:21 -15.04562 -161.04501 34947 ft 468 kts 43°
2026-04-21 13:21 -14.99520 -161.00303 34947 ft 468 kts 43°
2026-04-21 13:22 -14.94447 -160.96083 34947 ft 468 kts 43°
2026-04-21 13:22 -14.89375 -160.91866 34947 ft 468 kts 43°
2026-04-21 13:23 -14.84305 -160.87651 34956 ft 468 kts 43°
2026-04-21 13:23 -14.79233 -160.83437 34945 ft 468 kts 43°
2026-04-21 13:24 -14.74157 -160.79223 34947 ft 468 kts 43°
2026-04-21 13:24 -14.69080 -160.75009 34945 ft 468 kts 43°
2026-04-21 13:25 -14.63995 -160.70792 34945 ft 469 kts 43°
2026-04-21 13:25 -14.58911 -160.66578 34943 ft 469 kts 43°
2026-04-21 13:26 -14.53824 -160.62365 34948 ft 469 kts 43°
2026-04-21 13:26 -14.48732 -160.58150 34948 ft 469 kts 43°
2026-04-21 13:27 -14.43639 -160.53937 34949 ft 469 kts 43°
2026-04-21 13:27 -14.38543 -160.49723 34938 ft 470 kts 43°
2026-04-21 13:28 -14.33443 -160.45509 34940 ft 470 kts 43°
2026-04-21 13:28 -14.28341 -160.41296 34938 ft 470 kts 43°
2026-04-21 13:29 -14.23239 -160.37085 34938 ft 470 kts 43°
2026-04-21 13:29 -14.18130 -160.32871 34941 ft 470 kts 43°
2026-04-21 13:30 -14.13020 -160.28659 34938 ft 470 kts 43°
2026-04-21 13:30 -14.07910 -160.24449 34946 ft 470 kts 43°
2026-04-21 13:31 -14.02798 -160.20240 34941 ft 470 kts 43°
2026-04-21 13:31 -13.97684 -160.16032 34931 ft 471 kts 43°
2026-04-21 13:32 -13.92565 -160.11822 34932 ft 471 kts 43°
2026-04-21 13:32 -13.87448 -160.07617 34932 ft 471 kts 43°
2026-04-21 13:33 -13.82363 -160.03440 34933 ft 471 kts 43°
2026-04-21 13:33 -13.77241 -159.99235 34943 ft 471 kts 43°
2026-04-21 13:34 -13.72118 -159.95031 34931 ft 471 kts 43°
2026-04-21 13:34 -13.66994 -159.90829 34936 ft 471 kts 43°
2026-04-21 13:35 -13.61869 -159.86630 34929 ft 471 kts 43°
2026-04-21 13:35 -13.56739 -159.82427 34930 ft 472 kts 43°
2026-04-21 13:36 -13.51571 -159.78197 34928 ft 472 kts 43°
2026-04-21 13:36 -13.46470 -159.74024 34926 ft 472 kts 43°
2026-04-21 13:37 -13.41328 -159.69819 34935 ft 473 kts 43°
2026-04-21 13:37 -13.36181 -159.65613 34934 ft 473 kts 43°
2026-04-21 13:38 -13.31033 -159.61409 34930 ft 473 kts 43°
2026-04-21 13:38 -13.25887 -159.57207 34934 ft 473 kts 43°
2026-04-21 13:39 -13.20738 -159.53007 34922 ft 473 kts 43°
2026-04-21 13:39 -13.15592 -159.48811 34921 ft 473 kts 43°
2026-04-21 13:40 -13.10443 -159.44615 34924 ft 473 kts 43°
2026-04-21 13:40 -13.05295 -159.40421 34931 ft 473 kts 43°
2026-04-21 13:41 -13.00144 -159.36229 34920 ft 473 kts 43°
2026-04-21 13:41 -12.94997 -159.32041 34924 ft 472 kts 43°
2026-04-21 13:42 -12.89851 -159.27856 34916 ft 472 kts 43°
2026-04-21 13:42 -12.84704 -159.23674 34915 ft 472 kts 43°
2026-04-21 13:43 -12.79562 -159.19497 34913 ft 472 kts 43°
2026-04-21 13:43 -12.74420 -159.15322 34915 ft 472 kts 43°
2026-04-21 13:44 -12.69274 -159.11147 34914 ft 472 kts 43°
2026-04-21 13:44 -12.64130 -159.06974 34923 ft 472 kts 43°
2026-04-21 13:45 -12.58978 -159.02798 34922 ft 472 kts 43°
2026-04-21 13:45 -12.53822 -158.98622 34912 ft 472 kts 43°
2026-04-21 13:46 -12.48671 -158.94451 34920 ft 472 kts 43°
2026-04-21 13:46 -12.43515 -158.90279 34913 ft 472 kts 43°
2026-04-21 13:47 -12.38360 -158.86108 34911 ft 472 kts 43°
2026-04-21 13:47 -12.33203 -158.81940 34911 ft 473 kts 43°
2026-04-21 13:48 -12.28076 -158.77796 34912 ft 473 kts 43°
2026-04-21 13:48 -12.22912 -158.73626 34923 ft 473 kts 43°
2026-04-21 13:49 -12.17747 -158.69457 34911 ft 473 kts 43°
2026-04-21 13:49 -12.12580 -158.65288 34912 ft 473 kts 43°
2026-04-21 13:50 -12.07412 -158.61121 34912 ft 473 kts 43°
2026-04-21 13:50 -12.02247 -158.56958 34908 ft 473 kts 43°
2026-04-21 13:51 -11.97082 -158.52798 34918 ft 473 kts 43°
2026-04-21 13:51 -11.91917 -158.48638 34910 ft 473 kts 43°
2026-04-21 13:52 -11.86751 -158.44481 34914 ft 473 kts 43°
2026-04-21 13:52 -11.81587 -158.40327 34908 ft 473 kts 43°
2026-04-21 13:53 -11.76419 -158.36173 34907 ft 473 kts 43°
2026-04-21 13:53 -11.71255 -158.32023 34908 ft 472 kts 43°
2026-04-21 13:54 -11.66092 -158.27876 34908 ft 472 kts 43°
2026-04-21 13:54 -11.60928 -158.23731 34910 ft 472 kts 43°
2026-04-21 13:55 -11.55764 -158.19587 34908 ft 472 kts 43°
2026-04-21 13:55 -11.50601 -158.15446 34904 ft 472 kts 43°
2026-04-21 13:56 -11.45438 -158.11308 34905 ft 472 kts 43°
2026-04-21 13:56 -11.40275 -158.07171 34905 ft 472 kts 43°
2026-04-21 13:57 -11.35111 -158.03035 34906 ft 472 kts 43°
2026-04-21 13:57 -11.29947 -157.98901 34907 ft 472 kts 43°
2026-04-21 13:58 -11.24782 -157.94768 34904 ft 472 kts 43°
2026-04-21 13:58 -11.19616 -157.90637 34905 ft 472 kts 43°
2026-04-21 13:59 -11.14451 -157.86509 34909 ft 472 kts 43°
2026-04-21 13:59 -11.09287 -157.82383 34903 ft 472 kts 43°
2026-04-21 14:00 -11.04123 -157.78259 34906 ft 471 kts 43°
2026-04-21 14:00 -10.98965 -157.74141 34908 ft 471 kts 43°
2026-04-21 14:01 -10.93806 -157.70025 34904 ft 471 kts 43°
2026-04-21 14:01 -10.88647 -157.65911 34900 ft 471 kts 43°
2026-04-21 14:02 -10.83526 -157.61828 34898 ft 471 kts 43°
2026-04-21 14:03 -10.75792 -157.55666 34899 ft 471 kts 43°
2026-04-21 14:03 -10.70638 -157.51562 34894 ft 470 kts 43°
2026-04-21 14:04 -10.65485 -157.47461 34900 ft 470 kts 43°
2026-04-21 14:04 -10.60334 -157.43363 34898 ft 470 kts 43°
2026-04-21 14:05 -10.55181 -157.39265 34900 ft 470 kts 43°
2026-04-21 14:05 -10.50025 -157.35167 34898 ft 470 kts 43°
2026-04-21 14:06 -10.44873 -157.31073 34903 ft 470 kts 43°
2026-04-21 14:06 -10.39716 -157.26977 34898 ft 470 kts 43°
2026-04-21 14:07 -10.35433 -157.23577 34899 ft 470 kts 43°
2026-04-21 14:07 -10.29404 -157.18792 34899 ft 470 kts 43°
2026-04-21 14:08 -10.25084 -157.15366 34899 ft 470 kts 43°
2026-04-21 14:08 -10.19958 -157.11301 34898 ft 470 kts 43°
2026-04-21 14:09 -10.14769 -157.07188 34898 ft 470 kts 43°
2026-04-21 14:09 -10.09646 -157.03127 34898 ft 470 kts 43°
2026-04-21 14:10 -10.04487 -156.99042 34898 ft 470 kts 43°
2026-04-21 14:10 -9.99326 -156.94959 34899 ft 470 kts 43°
2026-04-21 14:11 -9.94164 -156.90876 34899 ft 470 kts 43°
2026-04-21 14:11 -9.89006 -156.86796 34899 ft 470 kts 43°
2026-04-21 14:12 -9.83843 -156.82714 34898 ft 470 kts 43°
2026-04-21 14:12 -9.78682 -156.78634 34899 ft 470 kts 43°
2026-04-21 14:13 -9.73520 -156.74555 34898 ft 470 kts 43°
2026-04-21 14:13 -9.68358 -156.70479 34901 ft 470 kts 43°
2026-04-21 14:14 -9.63196 -156.66404 34900 ft 470 kts 43°
2026-04-21 14:14 -9.58035 -156.62331 34895 ft 470 kts 43°
2026-04-21 14:15 -9.52876 -156.58261 34898 ft 470 kts 43°
2026-04-21 14:15 -9.47717 -156.54193 34897 ft 470 kts 44°
2026-04-21 14:16 -9.42560 -156.50128 34900 ft 470 kts 44°
2026-04-21 14:16 -9.37400 -156.46063 34898 ft 470 kts 44°
2026-04-21 14:17 -9.32247 -156.42004 34899 ft 469 kts 44°
2026-04-21 14:17 -9.27092 -156.37946 34894 ft 469 kts 44°
2026-04-21 14:18 -9.21939 -156.33890 34899 ft 469 kts 44°
2026-04-21 14:18 -9.16785 -156.29836 34895 ft 469 kts 44°
2026-04-21 14:19 -9.11634 -156.25785 34896 ft 469 kts 44°
2026-04-21 14:19 -9.06484 -156.21736 34895 ft 469 kts 44°
2026-04-21 14:20 -9.01334 -156.17690 34897 ft 469 kts 44°
2026-04-21 14:20 -8.96182 -156.13642 34896 ft 469 kts 43°
2026-04-21 14:21 -8.91032 -156.09598 34894 ft 469 kts 44°
2026-04-21 14:21 -8.85883 -156.05557 34896 ft 469 kts 44°
2026-04-21 14:22 -8.80734 -156.01517 34896 ft 468 kts 43°
2026-04-21 14:22 -8.75620 -155.97505 34895 ft 468 kts 43°
2026-04-21 14:23 -8.70471 -155.93468 34893 ft 468 kts 43°
2026-04-21 14:23 -8.65288 -155.89405 34894 ft 468 kts 43°
2026-04-21 14:24 -8.60172 -155.85396 34895 ft 468 kts 43°
2026-04-21 14:24 -8.55024 -155.81365 34895 ft 468 kts 43°
2026-04-21 14:25 -8.49879 -155.77336 34897 ft 468 kts 43°
2026-04-21 14:25 -8.44699 -155.73281 34892 ft 468 kts 43°
2026-04-21 14:26 -8.39590 -155.69284 34895 ft 468 kts 43°
2026-04-21 14:26 -8.34447 -155.65262 34892 ft 468 kts 43°
2026-04-21 14:27 -8.29307 -155.61242 34896 ft 467 kts 43°
2026-04-21 14:27 -8.24166 -155.57224 34894 ft 467 kts 43°
2026-04-21 14:28 -8.19026 -155.53207 34896 ft 467 kts 43°
2026-04-21 14:28 -8.13891 -155.49197 34896 ft 467 kts 43°
2026-04-21 14:29 -8.08754 -155.45186 34897 ft 467 kts 43°
2026-04-21 14:29 -8.03622 -155.41179 34896 ft 466 kts 43°
2026-04-21 14:30 -7.98492 -155.37176 34893 ft 466 kts 43°
2026-04-21 14:30 -7.93363 -155.33175 34898 ft 466 kts 43°
2026-04-21 14:31 -7.88235 -155.29177 34899 ft 466 kts 42°
2026-04-21 14:31 -7.83113 -155.25183 34891 ft 465 kts 42°
2026-04-21 14:32 -7.77990 -155.21190 34895 ft 465 kts 42°
2026-04-21 14:32 -7.72872 -155.17203 34895 ft 465 kts 42°
2026-04-21 14:33 -7.67758 -155.13221 34890 ft 464 kts 42°
2026-04-21 14:33 -7.62646 -155.09240 34893 ft 464 kts 42°
2026-04-21 14:34 -7.57537 -155.05264 34896 ft 464 kts 42°
2026-04-21 14:34 -7.52429 -155.01289 34898 ft 463 kts 40°
2026-04-21 14:35 -7.47332 -154.97324 34896 ft 463 kts 40°
2026-04-21 14:35 -7.42239 -154.93363 34893 ft 462 kts 39°
2026-04-21 14:36 -7.37153 -154.89409 34894 ft 461 kts 39°
2026-04-21 14:36 -7.32074 -154.85462 34893 ft 461 kts 39°
2026-04-21 14:37 -7.27002 -154.81521 34888 ft 460 kts 39°
2026-04-21 14:37 -7.21936 -154.77586 34890 ft 460 kts 39°
2026-04-21 14:38 -7.16873 -154.73655 34894 ft 459 kts 39°
2026-04-21 14:38 -7.11816 -154.69730 34889 ft 459 kts 39°
2026-04-21 14:39 -7.06766 -154.65810 34890 ft 458 kts 39°
2026-04-21 14:39 -7.01717 -154.61893 34891 ft 458 kts 39°
2026-04-21 14:40 -6.96671 -154.57979 34888 ft 458 kts 39°
2026-04-21 14:40 -6.91628 -154.54069 34887 ft 458 kts 39°
2026-04-21 14:41 -6.86585 -154.50160 34885 ft 457 kts 39°
2026-04-21 14:41 -6.81543 -154.46252 34888 ft 457 kts 39°
2026-04-21 14:42 -6.76501 -154.42346 34890 ft 457 kts 39°
2026-04-21 14:42 -6.71459 -154.38440 34890 ft 457 kts 39°
2026-04-21 14:43 -6.66413 -154.34533 34892 ft 458 kts 38°
2026-04-21 14:43 -6.61369 -154.30629 34889 ft 458 kts 38°
2026-04-21 14:44 -6.56351 -154.26745 34884 ft 458 kts 38°
2026-04-21 14:44 -6.51297 -154.22835 34888 ft 458 kts 38°
2026-04-21 14:45 -6.46241 -154.18923 34888 ft 459 kts 38°
2026-04-21 14:45 -6.41180 -154.15010 34886 ft 459 kts 39°
2026-04-21 14:46 -6.36117 -154.11096 34885 ft 459 kts 38°
2026-04-21 14:46 -6.31052 -154.07181 34888 ft 459 kts 38°
2026-04-21 14:47 -6.25984 -154.03264 34890 ft 460 kts 38°
2026-04-21 14:47 -6.20914 -153.99347 34887 ft 460 kts 38°
2026-04-21 14:48 -6.15842 -153.95430 34888 ft 460 kts 38°
2026-04-21 14:48 -6.10772 -153.91515 34888 ft 459 kts 37°
2026-04-21 14:49 -6.05706 -153.87604 34881 ft 459 kts 37°
2026-04-21 14:49 -6.00644 -153.83698 34882 ft 458 kts 37°
2026-04-21 14:50 -5.96443 -153.80456 34884 ft 458 kts 37°
2026-04-21 14:50 -5.90540 -153.75902 34883 ft 457 kts 37°
2026-04-21 14:51 -5.85531 -153.72039 34889 ft 457 kts 36°
2026-04-21 14:51 -5.80496 -153.68157 34882 ft 456 kts 36°
2026-04-21 14:52 -5.75473 -153.64284 34890 ft 455 kts 36°
2026-04-21 14:52 -5.70459 -153.60420 34883 ft 454 kts 36°
2026-04-21 14:53 -5.66265 -153.57189 34883 ft 453 kts 36°
2026-04-21 14:53 -5.61270 -153.53340 34885 ft 452 kts 36°
2026-04-21 14:54 -5.56282 -153.49498 34883 ft 452 kts 36°
2026-04-21 14:54 -5.51299 -153.45661 34881 ft 451 kts 36°
2026-04-21 14:55 -5.46356 -153.41856 34887 ft 451 kts 36°
2026-04-21 14:55 -5.41379 -153.38025 34884 ft 451 kts 36°
2026-04-21 14:56 -5.36407 -153.34199 34885 ft 450 kts 36°
2026-04-21 14:56 -5.31435 -153.30373 34885 ft 450 kts 36°
2026-04-21 14:57 -5.26462 -153.26547 34882 ft 450 kts 36°
2026-04-21 14:57 -5.21488 -153.22722 34885 ft 451 kts 36°
2026-04-21 14:58 -5.16510 -153.18894 34883 ft 451 kts 36°
2026-04-21 14:58 -5.11529 -153.15064 34882 ft 451 kts 36°
2026-04-21 14:59 -5.06548 -153.11235 34887 ft 451 kts 36°
2026-04-21 14:59 -5.01565 -153.07405 34881 ft 451 kts 36°
2026-04-21 15:00 -4.96582 -153.03578 34882 ft 451 kts 36°
2026-04-21 15:00 -4.91597 -152.99754 34885 ft 451 kts 36°
2026-04-21 15:01 -4.86612 -152.95928 34884 ft 451 kts 36°
2026-04-21 15:01 -4.81627 -152.92102 34882 ft 451 kts 36°
2026-04-21 15:02 -4.76644 -152.88278 34883 ft 451 kts 36°
2026-04-21 15:02 -4.71659 -152.84453 34885 ft 451 kts 36°
2026-04-21 15:03 -4.66679 -152.80633 34884 ft 451 kts 36°
2026-04-21 15:03 -4.61701 -152.76816 34881 ft 450 kts 36°
2026-04-21 15:04 -4.56726 -152.73001 34879 ft 450 kts 36°
2026-04-21 15:04 -4.51756 -152.69190 34883 ft 450 kts 36°
2026-04-21 15:05 -4.46788 -152.65382 34882 ft 449 kts 36°
2026-04-21 15:05 -4.39344 -152.59678 34880 ft 449 kts 35°
2026-04-21 15:06 -4.34385 -152.55878 34882 ft 449 kts 36°
2026-04-21 15:06 -4.29431 -152.52083 34882 ft 448 kts 36°
2026-04-21 15:07 -4.24510 -152.48314 34879 ft 448 kts 36°
2026-04-21 15:07 -4.19560 -152.44523 34880 ft 448 kts 36°
2026-04-21 15:08 -4.14611 -152.40733 34882 ft 448 kts 36°
2026-04-21 15:08 -4.09661 -152.36943 34882 ft 448 kts 36°
2026-04-21 15:09 -4.04715 -152.33158 34882 ft 447 kts 36°
2026-04-21 15:09 -3.99770 -152.29373 34883 ft 447 kts 36°
2026-04-21 15:10 -3.94825 -152.25589 34882 ft 447 kts 36°
2026-04-21 15:10 -3.89881 -152.21806 34884 ft 447 kts 36°
2026-04-21 15:11 -3.84937 -152.18024 34883 ft 447 kts 36°
2026-04-21 15:11 -3.79994 -152.14243 34882 ft 447 kts 36°
2026-04-21 15:12 -3.75050 -152.10463 34879 ft 447 kts 36°
2026-04-21 15:12 -3.70111 -152.06686 34879 ft 447 kts 36°
2026-04-21 15:13 -3.65173 -152.02911 34884 ft 446 kts 36°
2026-04-21 15:13 -3.60242 -151.99141 34880 ft 446 kts 36°
2026-04-21 15:14 -3.55349 -151.95401 34882 ft 445 kts 36°
2026-04-21 15:14 -3.50429 -151.91642 34883 ft 445 kts 36°
2026-04-21 15:15 -3.45513 -151.87885 34883 ft 444 kts 36°
2026-04-21 15:15 -3.40598 -151.84131 34882 ft 444 kts 36°
2026-04-21 15:16 -3.35688 -151.80379 34879 ft 444 kts 36°
2026-04-21 15:16 -3.30777 -151.76629 34877 ft 444 kts 36°
2026-04-21 15:17 -3.25868 -151.72880 34879 ft 444 kts 36°
2026-04-21 15:17 -3.20956 -151.69129 34881 ft 444 kts 36°
2026-04-21 15:18 -3.16045 -151.65379 34883 ft 444 kts 36°
2026-04-21 15:18 -3.11130 -151.61627 34882 ft 445 kts 36°
2026-04-21 15:19 -3.06212 -151.57873 34883 ft 445 kts 36°
2026-04-21 15:19 -3.01289 -151.54116 34881 ft 445 kts 36°
2026-04-21 15:20 -2.96366 -151.50359 34882 ft 445 kts 36°
2026-04-21 15:20 -2.91440 -151.46600 34882 ft 445 kts 36°
2026-04-21 15:21 -2.86512 -151.42840 34883 ft 446 kts 36°
2026-04-21 15:21 -2.81580 -151.39077 34882 ft 446 kts 36°
2026-04-21 15:22 -2.76648 -151.35315 34877 ft 446 kts 36°
2026-04-21 15:22 -2.71714 -151.31552 34880 ft 446 kts 36°
2026-04-21 15:23 -2.66781 -151.27789 34873 ft 446 kts 36°
2026-04-21 15:23 -2.61845 -151.24026 34877 ft 446 kts 36°
2026-04-21 15:24 -2.56913 -151.20265 34880 ft 446 kts 36°
2026-04-21 15:24 -2.51980 -151.16504 34879 ft 446 kts 36°
2026-04-21 15:25 -2.47047 -151.12744 34880 ft 446 kts 36°
2026-04-21 15:25 -2.42118 -151.08986 34879 ft 446 kts 36°
2026-04-21 15:26 -2.37189 -151.05229 34880 ft 445 kts 36°
2026-04-21 15:26 -2.32259 -151.01473 34882 ft 445 kts 35°
2026-04-21 15:27 -2.27335 -150.97720 34878 ft 445 kts 35°
2026-04-21 15:27 -2.22413 -150.93969 34880 ft 445 kts 35°
2026-04-21 15:28 -2.17494 -150.90221 34881 ft 444 kts 35°
2026-04-21 15:28 -2.12579 -150.86477 34883 ft 444 kts 35°
2026-04-21 15:29 -2.07666 -150.82734 34882 ft 444 kts 35°
2026-04-21 15:29 -2.02757 -150.78995 34881 ft 444 kts 35°
2026-04-21 15:30 -1.97844 -150.75253 34880 ft 444 kts 35°
2026-04-21 15:30 -1.92937 -150.71515 34882 ft 443 kts 35°
2026-04-21 15:31 -1.88031 -150.67779 34878 ft 443 kts 35°
2026-04-21 15:31 -1.83131 -150.64047 34876 ft 443 kts 35°
2026-04-21 15:32 -1.78263 -150.60341 34876 ft 443 kts 35°
2026-04-21 15:32 -1.73368 -150.56614 34877 ft 442 kts 35°
2026-04-21 15:33 -1.68474 -150.52887 34876 ft 442 kts 35°
2026-04-21 15:33 -1.63581 -150.49163 34877 ft 442 kts 35°
2026-04-21 15:34 -1.58690 -150.45439 34887 ft 442 kts 35°
2026-04-21 15:34 -1.53802 -150.41719 34876 ft 441 kts 35°
2026-04-21 15:35 -1.48918 -150.38001 34876 ft 441 kts 35°
2026-04-21 15:35 -1.44040 -150.34288 34879 ft 441 kts 35°
2026-04-21 15:36 -1.39164 -150.30577 34876 ft 440 kts 35°
2026-04-21 15:36 -1.34291 -150.26869 34877 ft 440 kts 35°
2026-04-21 15:37 -1.29421 -150.23163 34887 ft 440 kts 35°
2026-04-21 15:37 -1.24556 -150.19461 34886 ft 440 kts 35°
2026-04-21 15:38 -1.20480 -150.16358 34881 ft 439 kts 35°
2026-04-21 15:38 -1.15617 -150.12659 34887 ft 439 kts 35°
2026-04-21 15:39 -1.10756 -150.08960 34876 ft 439 kts 35°
2026-04-21 15:39 -1.05898 -150.05264 34890 ft 439 kts 35°
2026-04-21 15:40 -1.01040 -150.01568 34883 ft 439 kts 35°
2026-04-21 15:40 -0.96181 -149.97871 34884 ft 439 kts 35°
2026-04-21 15:41 -0.91355 -149.94200 34889 ft 439 kts 35°
2026-04-21 15:41 -0.86498 -149.90505 34878 ft 439 kts 35°
2026-04-21 15:42 -0.81636 -149.86806 34884 ft 439 kts 35°
2026-04-21 15:42 -0.76776 -149.83110 34879 ft 439 kts 35°
2026-04-21 15:43 -0.71917 -149.79413 34878 ft 439 kts 35°
2026-04-21 15:43 -0.67057 -149.75716 34880 ft 439 kts 35°
2026-04-21 15:44 -0.62198 -149.72021 34889 ft 439 kts 35°
2026-04-21 15:44 -0.57340 -149.68326 34880 ft 439 kts 35°
2026-04-21 15:45 -0.52487 -149.64634 34878 ft 439 kts 35°
2026-04-21 15:45 -0.47633 -149.60942 34878 ft 438 kts 35°
2026-04-21 15:46 -0.42778 -149.57249 34882 ft 438 kts 35°
2026-04-21 15:46 -0.37931 -149.53561 34882 ft 438 kts 35°
2026-04-21 15:47 -0.33086 -149.49876 34877 ft 437 kts 35°
2026-04-21 15:47 -0.28247 -149.46197 34881 ft 437 kts 35°
2026-04-21 15:48 -0.23411 -149.42519 34883 ft 437 kts 35°
2026-04-21 15:48 -0.18580 -149.38844 34878 ft 437 kts 35°
2026-04-21 15:49 -0.13747 -149.35167 34878 ft 436 kts 35°
2026-04-21 15:49 -0.08949 -149.31516 34878 ft 436 kts 35°
2026-04-21 15:50 -0.04122 -149.27843 34882 ft 436 kts 35°
2026-04-21 15:50 0.00705 -149.24170 34885 ft 436 kts 35°
2026-04-21 15:51 0.05530 -149.20499 34878 ft 436 kts 35°
2026-04-21 15:51 0.10356 -149.16826 34884 ft 436 kts 35°
2026-04-21 15:52 0.15185 -149.13153 34894 ft 436 kts 35°
2026-04-21 15:52 0.20013 -149.09479 34890 ft 436 kts 35°
2026-04-21 15:53 0.24844 -149.05803 34888 ft 437 kts 35°
2026-04-21 15:53 0.29675 -149.02127 34891 ft 437 kts 35°
2026-04-21 15:54 0.34510 -148.98447 34891 ft 437 kts 35°
2026-04-21 15:54 0.39345 -148.94769 34892 ft 437 kts 35°
2026-04-21 15:55 0.44180 -148.91090 34884 ft 437 kts 35°
2026-04-21 15:55 0.49013 -148.87412 34888 ft 437 kts 35°
2026-04-21 15:56 0.53846 -148.83734 34886 ft 437 kts 35°
2026-04-21 15:56 0.58678 -148.80057 34895 ft 437 kts 35°
2026-04-21 15:57 0.63510 -148.76379 34887 ft 436 kts 35°
2026-04-21 15:57 0.68340 -148.72704 34893 ft 437 kts 35°
2026-04-21 15:58 0.73174 -148.69024 34888 ft 437 kts 35°
2026-04-21 15:58 0.78009 -148.65345 34888 ft 437 kts 35°
2026-04-21 15:59 0.82846 -148.61664 34890 ft 437 kts 35°
2026-04-21 15:59 0.87688 -148.57979 34887 ft 438 kts 35°
2026-04-21 16:00 0.92531 -148.54292 34892 ft 438 kts 35°
2026-04-21 16:00 0.97376 -148.50604 34897 ft 438 kts 35°
2026-04-21 16:01 1.02193 -148.46938 34886 ft 438 kts 35°
2026-04-21 16:01 1.07042 -148.43246 34888 ft 439 kts 35°
2026-04-21 16:02 1.11898 -148.39550 34892 ft 439 kts 35°
2026-04-21 16:02 1.16755 -148.35852 34887 ft 439 kts 35°
2026-04-21 16:03 1.21613 -148.32154 34892 ft 439 kts 35°
2026-04-21 16:03 1.26471 -148.28455 34898 ft 439 kts 35°
2026-04-21 16:04 1.31333 -148.24753 34887 ft 439 kts 35°
2026-04-21 16:04 1.36193 -148.21053 34897 ft 439 kts 35°
2026-04-21 16:05 1.41056 -148.17349 34889 ft 439 kts 35°
2026-04-21 16:05 1.45917 -148.13648 34889 ft 440 kts 35°
2026-04-21 16:06 1.50784 -148.09941 34901 ft 439 kts 35°
2026-04-21 16:06 1.55646 -148.06238 34900 ft 439 kts 35°
2026-04-21 16:07 1.60507 -148.02536 34898 ft 439 kts 35°
2026-04-21 16:07 1.65370 -147.98832 34889 ft 440 kts 35°
2026-04-21 16:08 1.72667 -147.93273 34903 ft 440 kts 35°
2026-04-21 16:09 1.77532 -147.89567 34896 ft 440 kts 35°
2026-04-21 16:09 1.82401 -147.85858 34896 ft 440 kts 35°
2026-04-21 16:10 1.87270 -147.82148 34901 ft 440 kts 35°
2026-04-21 16:10 1.92143 -147.78435 34899 ft 440 kts 35°
2026-04-21 16:11 1.97015 -147.74722 34896 ft 441 kts 35°
2026-04-21 16:11 2.01891 -147.71006 34899 ft 441 kts 35°
2026-04-21 16:12 2.05944 -147.67917 34900 ft 441 kts 35°
2026-04-21 16:12 2.11649 -147.63569 34899 ft 441 kts 36°
2026-04-21 16:13 2.16530 -147.59848 34902 ft 441 kts 36°
2026-04-21 16:13 2.21411 -147.56127 34901 ft 441 kts 36°
2026-04-21 16:14 2.26290 -147.52408 34904 ft 441 kts 36°
2026-04-21 16:14 2.31171 -147.48686 34900 ft 441 kts 36°
2026-04-21 16:15 2.36053 -147.44963 34905 ft 441 kts 36°
2026-04-21 16:15 2.40906 -147.41262 34913 ft 442 kts 36°
2026-04-21 16:16 2.45825 -147.37511 34906 ft 442 kts 36°
2026-04-21 16:16 2.50710 -147.33785 34904 ft 442 kts 36°
2026-04-21 16:17 2.55595 -147.30058 34902 ft 441 kts 36°
2026-04-21 16:17 2.60478 -147.26333 34897 ft 441 kts 36°
2026-04-21 16:18 2.65359 -147.22609 34907 ft 441 kts 36°
2026-04-21 16:18 2.70243 -147.18882 34906 ft 442 kts 36°
2026-04-21 16:19 2.75093 -147.15181 34904 ft 442 kts 36°
2026-04-21 16:19 2.79980 -147.11451 34904 ft 442 kts 36°
2026-04-21 16:20 2.84865 -147.07723 34912 ft 441 kts 36°
2026-04-21 16:20 2.89744 -147.03999 34899 ft 441 kts 36°
2026-04-21 16:21 2.94620 -147.00276 34903 ft 441 kts 36°
2026-04-21 16:21 2.99491 -146.96557 34907 ft 440 kts 36°
2026-04-21 16:22 3.03571 -146.93441 34906 ft 440 kts 36°
2026-04-21 16:22 3.09227 -146.89122 34909 ft 440 kts 36°
2026-04-21 16:23 3.14094 -146.85404 34906 ft 440 kts 36°
2026-04-21 16:23 3.18138 -146.82315 34912 ft 440 kts 36°
2026-04-21 16:24 3.23037 -146.78572 34905 ft 440 kts 36°
2026-04-21 16:24 3.27903 -146.74854 34910 ft 440 kts 36°
2026-04-21 16:25 3.32737 -146.71160 34909 ft 440 kts 36°
2026-04-21 16:25 3.37607 -146.67439 34909 ft 440 kts 36°
2026-04-21 16:26 3.42479 -146.63715 34909 ft 441 kts 36°
2026-04-21 16:26 3.47351 -146.59990 34915 ft 441 kts 36°
2026-04-21 16:27 3.52225 -146.56263 34918 ft 441 kts 36°
2026-04-21 16:27 3.57105 -146.52531 34916 ft 441 kts 36°
2026-04-21 16:28 3.61984 -146.48800 34913 ft 441 kts 36°
2026-04-21 16:28 3.66863 -146.45068 34913 ft 441 kts 36°
2026-04-21 16:29 3.71745 -146.41334 34918 ft 442 kts 36°
2026-04-21 16:29 3.76625 -146.37600 34917 ft 442 kts 36°
2026-04-21 16:30 3.81507 -146.33864 34911 ft 442 kts 36°
2026-04-21 16:30 3.86391 -146.30126 34916 ft 442 kts 36°
2026-04-21 16:31 3.91275 -146.26388 34918 ft 442 kts 36°
2026-04-21 16:31 3.96162 -146.22647 34917 ft 442 kts 36°
2026-04-21 16:32 4.01053 -146.18902 34918 ft 443 kts 36°
2026-04-21 16:32 4.05945 -146.15156 34917 ft 443 kts 36°
2026-04-21 16:33 4.10841 -146.11406 34920 ft 443 kts 36°
2026-04-21 16:33 4.15706 -146.07679 34920 ft 443 kts 36°
2026-04-21 16:34 4.20606 -146.03924 34924 ft 444 kts 36°
2026-04-21 16:34 4.25513 -146.00164 34920 ft 444 kts 36°
2026-04-21 16:35 4.30418 -145.96405 34923 ft 444 kts 36°
2026-04-21 16:35 4.35328 -145.92641 34922 ft 444 kts 36°
2026-04-21 16:36 4.40237 -145.88878 34928 ft 444 kts 36°
2026-04-21 16:36 4.45147 -145.85113 34931 ft 444 kts 36°
2026-04-21 16:37 4.50058 -145.81347 34926 ft 444 kts 36°
2026-04-21 16:37 4.54969 -145.77580 34928 ft 444 kts 36°
2026-04-21 16:38 4.59879 -145.73812 34932 ft 444 kts 36°
2026-04-21 16:38 4.64788 -145.70045 34932 ft 445 kts 36°
2026-04-21 16:39 4.69701 -145.66274 34934 ft 445 kts 36°
2026-04-21 16:39 4.74612 -145.62505 34932 ft 445 kts 36°
2026-04-21 16:40 4.79527 -145.58731 34932 ft 445 kts 36°
2026-04-21 16:40 4.84441 -145.54957 34936 ft 445 kts 36°
2026-04-21 16:41 4.89357 -145.51181 34930 ft 445 kts 36°
2026-04-21 16:41 4.94276 -145.47401 34936 ft 445 kts 36°
2026-04-21 16:42 4.99194 -145.43622 34932 ft 446 kts 36°
2026-04-21 16:42 5.04117 -145.39842 34935 ft 446 kts 36°
2026-04-21 16:43 5.09044 -145.36061 34933 ft 446 kts 36°
2026-04-21 16:43 5.13942 -145.32301 34934 ft 446 kts 36°
2026-04-21 16:44 5.18873 -145.28513 34937 ft 447 kts 36°
2026-04-21 16:44 5.23806 -145.24722 34936 ft 447 kts 36°
2026-04-21 16:45 5.28740 -145.20929 34941 ft 447 kts 36°
2026-04-21 16:45 5.33677 -145.17134 34935 ft 447 kts 36°
2026-04-21 16:46 5.38619 -145.13334 34944 ft 448 kts 36°
2026-04-21 16:46 5.43567 -145.09529 34942 ft 448 kts 36°
2026-04-21 16:47 5.48519 -145.05721 34943 ft 449 kts 36°
2026-04-21 16:47 5.53476 -145.01906 34944 ft 449 kts 36°
2026-04-21 16:48 5.58438 -144.98088 34940 ft 449 kts 36°
2026-04-21 16:48 5.63402 -144.94267 34943 ft 450 kts 36°
2026-04-21 16:49 5.68370 -144.90443 34945 ft 450 kts 36°
2026-04-21 16:49 5.73348 -144.86609 34942 ft 451 kts 36°
2026-04-21 16:50 5.78328 -144.82773 34947 ft 452 kts 36°
2026-04-21 16:50 5.83315 -144.78932 34949 ft 452 kts 36°
2026-04-21 16:51 5.88305 -144.75086 34942 ft 452 kts 36°
2026-04-21 16:51 5.93298 -144.71238 34945 ft 452 kts 36°
2026-04-21 16:52 5.98292 -144.67388 34946 ft 453 kts 36°
2026-04-21 16:52 6.03291 -144.63533 34950 ft 453 kts 36°
2026-04-21 16:53 6.08290 -144.59677 34950 ft 453 kts 36°
2026-04-21 16:53 6.13294 -144.55817 34953 ft 453 kts 36°
2026-04-21 16:54 6.18296 -144.51957 34949 ft 453 kts 36°
2026-04-21 16:54 6.23297 -144.48096 34942 ft 454 kts 36°
2026-04-21 16:55 6.28305 -144.44230 34951 ft 454 kts 36°
2026-04-21 16:55 6.33315 -144.40361 34951 ft 454 kts 36°
2026-04-21 16:56 6.38331 -144.36487 34948 ft 455 kts 36°
2026-04-21 16:56 6.43350 -144.32608 34951 ft 455 kts 36°
2026-04-21 16:57 6.48374 -144.28726 34954 ft 456 kts 36°
2026-04-21 16:57 6.53399 -144.24841 34952 ft 456 kts 36°
2026-04-21 16:58 6.58429 -144.20952 34946 ft 456 kts 36°
2026-04-21 16:58 6.63458 -144.17062 34953 ft 456 kts 36°
2026-04-21 16:59 6.68458 -144.13194 34953 ft 457 kts 36°
2026-04-21 16:59 6.73493 -144.09298 34955 ft 457 kts 36°
2026-04-21 17:00 6.78530 -144.05399 34957 ft 457 kts 36°
2026-04-21 17:00 6.82754 -144.02128 34955 ft 457 kts 36°
2026-04-21 17:01 6.88613 -143.97591 34952 ft 458 kts 36°
2026-04-21 17:01 6.93660 -143.93681 34957 ft 458 kts 36°
2026-04-21 17:02 6.98710 -143.89768 34953 ft 458 kts 36°
2026-04-21 17:02 7.03762 -143.85852 34953 ft 459 kts 36°
2026-04-21 17:03 7.08818 -143.81932 34954 ft 459 kts 36°
2026-04-21 17:03 7.13878 -143.78007 34956 ft 459 kts 36°
2026-04-21 17:04 7.18944 -143.74077 34953 ft 460 kts 36°
2026-04-21 17:04 7.24012 -143.70145 34953 ft 460 kts 36°
2026-04-21 17:05 7.29079 -143.66211 34954 ft 460 kts 36°
2026-04-21 17:05 7.34148 -143.62275 34961 ft 460 kts 36°
2026-04-21 17:06 7.39219 -143.58336 34956 ft 460 kts 36°
2026-04-21 17:06 7.44293 -143.54394 34955 ft 461 kts 36°
2026-04-21 17:07 7.48511 -143.51116 34954 ft 461 kts 36°
2026-04-21 17:07 7.54444 -143.46504 34954 ft 461 kts 36°
2026-04-21 17:08 7.59523 -143.42554 34957 ft 461 kts 36°
2026-04-21 17:08 7.64600 -143.38605 34960 ft 461 kts 36°
2026-04-21 17:09 7.71360 -143.33345 34962 ft 461 kts 36°
2026-04-21 17:09 7.76441 -143.29390 34961 ft 461 kts 36°
2026-04-21 17:10 7.81518 -143.25436 34960 ft 461 kts 36°
2026-04-21 17:10 7.86600 -143.21477 34960 ft 461 kts 36°
2026-04-21 17:11 7.91682 -143.17518 34964 ft 462 kts 36°
2026-04-21 17:11 7.96768 -143.13553 34961 ft 462 kts 36°
2026-04-21 17:12 8.01858 -143.09585 34961 ft 462 kts 36°
2026-04-21 17:12 8.06947 -143.05616 34965 ft 463 kts 36°
2026-04-21 17:13 8.12039 -143.01643 34965 ft 463 kts 36°
2026-04-21 17:13 8.17135 -142.97666 34961 ft 463 kts 36°
2026-04-21 17:14 8.22233 -142.93686 34967 ft 463 kts 36°
2026-04-21 17:14 8.27333 -142.89703 34965 ft 464 kts 36°
2026-04-21 17:15 8.32436 -142.85716 34969 ft 464 kts 36°
2026-04-21 17:15 8.37540 -142.81728 34970 ft 464 kts 36°
2026-04-21 17:16 8.42646 -142.77736 34970 ft 464 kts 36°
2026-04-21 17:16 8.47754 -142.73741 34970 ft 464 kts 36°
2026-04-21 17:17 8.52862 -142.69746 34971 ft 465 kts 36°
2026-04-21 17:17 8.57974 -142.65745 34970 ft 465 kts 36°
2026-04-21 17:18 8.63089 -142.61741 34970 ft 465 kts 36°
2026-04-21 17:18 8.68205 -142.57734 34970 ft 465 kts 36°
2026-04-21 17:19 8.73322 -142.53726 34976 ft 466 kts 36°
2026-04-21 17:19 8.78444 -142.49712 34967 ft 466 kts 36°
2026-04-21 17:20 8.83531 -142.45724 34975 ft 466 kts 36°
2026-04-21 17:20 8.88656 -142.41705 34973 ft 466 kts 36°
2026-04-21 17:21 8.93785 -142.37681 34972 ft 467 kts 36°
2026-04-21 17:21 8.98913 -142.33656 34973 ft 467 kts 36°
2026-04-21 17:22 9.04045 -142.29627 34970 ft 467 kts 36°
2026-04-21 17:22 9.09179 -142.25595 34972 ft 467 kts 36°
2026-04-21 17:23 9.14314 -142.21560 34974 ft 468 kts 36°
2026-04-21 17:23 9.19454 -142.17521 34973 ft 468 kts 36°
2026-04-21 17:24 9.24595 -142.13479 34976 ft 468 kts 36°
2026-04-21 17:24 9.29742 -142.09430 34975 ft 468 kts 36°
2026-04-21 17:25 9.34889 -142.05380 34977 ft 468 kts 36°
2026-04-21 17:25 9.40033 -142.01331 34977 ft 469 kts 36°
2026-04-21 17:26 9.45181 -141.97277 34977 ft 469 kts 36°
2026-04-21 17:26 9.50333 -141.93218 34975 ft 469 kts 36°
2026-04-21 17:27 9.55487 -141.89156 34975 ft 469 kts 36°
2026-04-21 17:27 9.60643 -141.85091 34976 ft 470 kts 36°
2026-04-21 17:28 9.65801 -141.81023 34978 ft 470 kts 36°
2026-04-21 17:28 9.70960 -141.76952 34977 ft 470 kts 36°
2026-04-21 17:29 9.76123 -141.72877 34978 ft 470 kts 36°
2026-04-21 17:29 9.81289 -141.68797 34981 ft 471 kts 36°
2026-04-21 17:30 9.86456 -141.64715 34980 ft 471 kts 36°
2026-04-21 17:30 9.91628 -141.60627 34981 ft 471 kts 36°
2026-04-21 17:31 9.96800 -141.56538 34972 ft 472 kts 36°
2026-04-21 17:31 10.01975 -141.52444 34977 ft 472 kts 36°
2026-04-21 17:32 10.07147 -141.48351 34983 ft 472 kts 36°
2026-04-21 17:32 10.12291 -141.44279 34977 ft 472 kts 36°
2026-04-21 17:33 10.17469 -141.40178 34981 ft 472 kts 36°
2026-04-21 17:33 10.22648 -141.36074 34980 ft 472 kts 36°
2026-04-21 17:34 10.27826 -141.31969 34983 ft 472 kts 36°
2026-04-21 17:34 10.33005 -141.27861 34987 ft 472 kts 36°
2026-04-21 17:35 10.38187 -141.23750 34985 ft 473 kts 36°
2026-04-21 17:35 10.43371 -141.19637 34986 ft 473 kts 36°
2026-04-21 17:36 10.48555 -141.15521 34988 ft 473 kts 36°
2026-04-21 17:36 10.53773 -141.11375 34989 ft 473 kts 36°
2026-04-21 17:37 10.58924 -141.07280 34994 ft 473 kts 36°
2026-04-21 17:37 10.64143 -141.03129 34988 ft 473 kts 36°
2026-04-21 17:38 10.69297 -140.99028 34993 ft 474 kts 36°
2026-04-21 17:38 10.74485 -140.94898 34989 ft 474 kts 36°
2026-04-21 17:39 10.79707 -140.90739 34992 ft 474 kts 36°
2026-04-21 17:39 10.84894 -140.86607 34988 ft 474 kts 36°
2026-04-21 17:40 10.90085 -140.82469 34993 ft 474 kts 36°
2026-04-21 17:40 10.95242 -140.78357 34993 ft 474 kts 36°
2026-04-21 17:41 11.00441 -140.74208 34995 ft 475 kts 36°
2026-04-21 17:41 11.05638 -140.70060 34994 ft 475 kts 36°
2026-04-21 17:42 11.10841 -140.65905 34992 ft 476 kts 36°
2026-04-21 17:42 11.16051 -140.61743 34996 ft 476 kts 36°
2026-04-21 17:43 11.21264 -140.57576 34994 ft 477 kts 36°
2026-04-21 17:43 11.26481 -140.53403 34996 ft 477 kts 36°
2026-04-21 17:44 11.31706 -140.49224 34994 ft 478 kts 36°
2026-04-21 17:44 11.36932 -140.45040 34993 ft 478 kts 36°
2026-04-21 17:45 11.42167 -140.40847 34997 ft 479 kts 36°
2026-04-21 17:45 11.47405 -140.36651 34998 ft 479 kts 36°
2026-04-21 17:46 11.52648 -140.32448 35000 ft 479 kts 36°
2026-04-21 17:46 11.57893 -140.28241 35002 ft 480 kts 36°
2026-04-21 17:47 11.63142 -140.24029 35000 ft 480 kts 36°
2026-04-21 17:47 11.68394 -140.19813 35000 ft 480 kts 36°
2026-04-21 17:48 11.73642 -140.15598 35000 ft 480 kts 36°
2026-04-21 17:48 11.78894 -140.11377 34999 ft 480 kts 36°
2026-04-21 17:49 11.84141 -140.07158 35006 ft 480 kts 36°
2026-04-21 17:49 11.89388 -140.02937 35005 ft 480 kts 36°
2026-04-21 17:50 11.94632 -139.98717 35005 ft 480 kts 36°
2026-04-21 17:50 11.99874 -139.94496 35008 ft 480 kts 36°
2026-04-21 17:51 12.05111 -139.90277 35001 ft 479 kts 36°
2026-04-21 17:51 12.10345 -139.86058 35005 ft 479 kts 36°
2026-04-21 17:52 12.15575 -139.81840 35002 ft 479 kts 36°
2026-04-21 17:52 12.19921 -139.78333 35002 ft 479 kts 36°
2026-04-21 17:53 12.25994 -139.73431 35002 ft 479 kts 36°
2026-04-21 17:53 12.30369 -139.69898 35006 ft 478 kts 36°
2026-04-21 17:54 12.36437 -139.64994 35006 ft 478 kts 36°
2026-04-21 17:54 12.40813 -139.61456 35004 ft 478 kts 36°
2026-04-21 17:55 12.46036 -139.57231 35007 ft 478 kts 36°
2026-04-21 17:55 12.51255 -139.53007 35007 ft 479 kts 36°
2026-04-21 17:56 12.56477 -139.48778 35007 ft 478 kts 37°
2026-04-21 17:56 12.61694 -139.44551 35013 ft 478 kts 36°
2026-04-21 17:57 12.66912 -139.40321 35007 ft 478 kts 36°
2026-04-21 17:57 12.72130 -139.36089 35006 ft 478 kts 37°
2026-04-21 17:58 12.77344 -139.31858 35007 ft 478 kts 37°
2026-04-21 17:58 12.82559 -139.27624 35015 ft 478 kts 37°
2026-04-21 17:59 12.87773 -139.23387 35005 ft 478 kts 37°
2026-04-21 17:59 12.92951 -139.19179 35007 ft 478 kts 37°
2026-04-21 18:00 12.98162 -139.14941 35007 ft 478 kts 37°
2026-04-21 18:00 13.03374 -139.10700 35013 ft 478 kts 37°
2026-04-21 18:01 13.08587 -139.06455 35013 ft 478 kts 37°
2026-04-21 18:01 13.13799 -139.02209 35012 ft 479 kts 37°
2026-04-21 18:02 13.19012 -138.97960 35012 ft 479 kts 37°
2026-04-21 18:02 13.24224 -138.93709 35018 ft 479 kts 37°
2026-04-21 18:03 13.29439 -138.89454 35025 ft 479 kts 37°
2026-04-21 18:03 13.34654 -138.85196 35020 ft 479 kts 37°
2026-04-21 18:04 13.39873 -138.80933 35023 ft 479 kts 37°
2026-04-21 18:04 13.45095 -138.76664 35017 ft 480 kts 37°
2026-04-21 18:05 13.50314 -138.72396 35024 ft 480 kts 37°
2026-04-21 18:05 13.55538 -138.68121 35021 ft 480 kts 37°
2026-04-21 18:06 13.60767 -138.63839 35017 ft 481 kts 37°
2026-04-21 18:06 13.65998 -138.59553 35016 ft 481 kts 37°
2026-04-21 18:07 13.71230 -138.55265 35023 ft 481 kts 37°
2026-04-21 18:07 13.76461 -138.50973 35033 ft 481 kts 37°
2026-04-21 18:08 13.81696 -138.46677 35022 ft 481 kts 37°
2026-04-21 18:08 13.86930 -138.42378 35026 ft 482 kts 37°
2026-04-21 18:09 13.92168 -138.38074 35022 ft 482 kts 37°
2026-04-21 18:09 13.97406 -138.33768 35018 ft 482 kts 37°
2026-04-21 18:10 14.02642 -138.29461 35028 ft 482 kts 37°
2026-04-21 18:10 14.07878 -138.25150 35032 ft 482 kts 37°
2026-04-21 18:11 14.13117 -138.20835 35022 ft 482 kts 37°
2026-04-21 18:11 14.18350 -138.16521 35017 ft 482 kts 37°
2026-04-21 18:12 14.23584 -138.12205 35027 ft 482 kts 37°
2026-04-21 18:12 14.28814 -138.07889 35026 ft 481 kts 37°
2026-04-21 18:13 14.34042 -138.03572 35031 ft 481 kts 37°
2026-04-21 18:13 14.39263 -137.99259 35030 ft 481 kts 37°
2026-04-21 18:14 14.47091 -137.92786 35029 ft 481 kts 37°
2026-04-21 18:15 14.52305 -137.88471 35028 ft 480 kts 37°
2026-04-21 18:15 14.57519 -137.84155 35032 ft 480 kts 37°
2026-04-21 18:16 14.62730 -137.79837 35034 ft 480 kts 37°
2026-04-21 18:16 14.67938 -137.75520 35042 ft 480 kts 37°
2026-04-21 18:17 14.73107 -137.71231 35030 ft 480 kts 37°
2026-04-21 18:17 14.78316 -137.66908 35032 ft 480 kts 37°
2026-04-21 18:18 14.83517 -137.62588 35040 ft 480 kts 37°
2026-04-21 18:18 14.88721 -137.58262 35043 ft 480 kts 37°
2026-04-21 18:19 14.93921 -137.53938 35037 ft 480 kts 37°
2026-04-21 18:19 14.99120 -137.49611 35039 ft 480 kts 37°
2026-04-21 18:20 15.04321 -137.45280 35034 ft 480 kts 37°
2026-04-21 18:20 15.09520 -137.40948 35037 ft 480 kts 37°
2026-04-21 18:21 15.14720 -137.36612 35040 ft 480 kts 37°
2026-04-21 18:21 15.19918 -137.32275 35043 ft 480 kts 37°
2026-04-21 18:22 15.25118 -137.27933 35047 ft 480 kts 37°
2026-04-21 18:22 15.30313 -137.23593 35048 ft 480 kts 37°
2026-04-21 18:23 15.35507 -137.19251 35044 ft 480 kts 37°
2026-04-21 18:23 15.40708 -137.14900 35046 ft 480 kts 37°
2026-04-21 18:24 15.45905 -137.10550 35048 ft 480 kts 37°
2026-04-21 18:24 15.51102 -137.06196 35049 ft 480 kts 37°
2026-04-21 18:25 15.56300 -137.01839 35047 ft 480 kts 37°
2026-04-21 18:25 15.61498 -136.97479 35054 ft 481 kts 37°
2026-04-21 18:26 15.66696 -136.93116 35052 ft 481 kts 37°
2026-04-21 18:26 15.71894 -136.88750 35052 ft 481 kts 37°
2026-04-21 18:27 15.77090 -136.84383 35058 ft 481 kts 37°
2026-04-21 18:27 15.82288 -136.80011 35055 ft 481 kts 37°
2026-04-21 18:28 15.87489 -136.75634 35055 ft 481 kts 37°
2026-04-21 18:28 15.92691 -136.71252 35057 ft 481 kts 37°
2026-04-21 18:29 15.97894 -136.66867 35062 ft 482 kts 37°
2026-04-21 18:29 16.03104 -136.62473 35060 ft 482 kts 37°
2026-04-21 18:30 16.08320 -136.58071 35059 ft 483 kts 37°
2026-04-21 18:30 16.13537 -136.53665 35068 ft 483 kts 37°
2026-04-21 18:31 16.18756 -136.49254 35070 ft 484 kts 37°
2026-04-21 18:31 16.23980 -136.44836 35061 ft 484 kts 37°
2026-04-21 18:32 16.29205 -136.40414 35061 ft 484 kts 37°
2026-04-21 18:32 16.34434 -136.35985 35062 ft 485 kts 37°
2026-04-21 18:33 16.39662 -136.31553 35066 ft 485 kts 37°
2026-04-21 18:33 16.44889 -136.27121 35064 ft 485 kts 37°
2026-04-21 18:34 16.50114 -136.22685 35065 ft 484 kts 37°
2026-04-21 18:34 16.55338 -136.18248 35068 ft 484 kts 37°
2026-04-21 18:35 16.59675 -136.14561 35066 ft 484 kts 37°
2026-04-21 18:35 16.65773 -136.09374 35066 ft 484 kts 37°
2026-04-21 18:36 16.70986 -136.04937 35068 ft 484 kts 37°
2026-04-21 18:36 16.76196 -136.00499 35072 ft 483 kts 37°
2026-04-21 18:37 16.80524 -135.96808 35076 ft 483 kts 37°
2026-04-21 18:37 16.86580 -135.91642 35071 ft 484 kts 37°
2026-04-21 18:38 16.91790 -135.87194 35074 ft 484 kts 37°
2026-04-21 18:38 16.96156 -135.83466 35074 ft 484 kts 37°
2026-04-21 18:39 17.01369 -135.79008 35083 ft 484 kts 37°
2026-04-21 18:39 17.06583 -135.74547 35077 ft 485 kts 37°
2026-04-21 18:40 17.11799 -135.70079 35077 ft 485 kts 37°
2026-04-21 18:40 17.16980 -135.65638 35080 ft 485 kts 37°
2026-04-21 18:41 17.22198 -135.61162 35081 ft 485 kts 37°
2026-04-21 18:41 17.27420 -135.56680 35083 ft 486 kts 37°
2026-04-21 18:42 17.32639 -135.52197 35080 ft 486 kts 37°
2026-04-21 18:42 17.37862 -135.47707 35084 ft 486 kts 37°
2026-04-21 18:43 17.43085 -135.43213 35085 ft 486 kts 37°
2026-04-21 18:43 17.48312 -135.38713 35082 ft 486 kts 37°
2026-04-21 18:44 17.53541 -135.34207 35085 ft 487 kts 37°
2026-04-21 18:44 17.58768 -135.29700 35085 ft 487 kts 37°
2026-04-21 18:45 17.63996 -135.25188 35082 ft 487 kts 37°
2026-04-21 18:45 17.69224 -135.20672 35087 ft 487 kts 37°
2026-04-21 18:46 17.74451 -135.16155 35087 ft 487 kts 37°
2026-04-21 18:46 17.79676 -135.11635 35083 ft 487 kts 37°
2026-04-21 18:47 17.84899 -135.07113 35085 ft 487 kts 37°
2026-04-21 18:47 17.90125 -135.02586 35091 ft 487 kts 37°
2026-04-21 18:48 17.95347 -134.98058 35092 ft 487 kts 37°
2026-04-21 18:48 18.00574 -134.93522 35091 ft 487 kts 37°
2026-04-21 18:49 18.05795 -134.88988 35090 ft 487 kts 37°
2026-04-21 18:49 18.10131 -134.85220 35094 ft 487 kts 37°
2026-04-21 18:50 18.16232 -134.79913 35091 ft 487 kts 37°
2026-04-21 18:50 18.21448 -134.75373 35093 ft 487 kts 37°
2026-04-21 18:51 18.26662 -134.70829 35092 ft 487 kts 37°
2026-04-21 18:51 18.31875 -134.66285 35095 ft 487 kts 37°
2026-04-21 18:52 18.37086 -134.61737 35104 ft 487 kts 37°
2026-04-21 18:52 18.42299 -134.57185 35100 ft 487 kts 37°
2026-04-21 18:53 18.47479 -134.52657 35102 ft 487 kts 37°
2026-04-21 18:53 18.52696 -134.48093 35104 ft 487 kts 37°
2026-04-21 18:54 18.57914 -134.43525 35099 ft 488 kts 37°
2026-04-21 18:54 18.63131 -134.38954 35102 ft 488 kts 37°
2026-04-21 18:55 18.67502 -134.35121 35105 ft 488 kts 37°
2026-04-21 18:55 18.73569 -134.29797 35104 ft 488 kts 37°
2026-04-21 18:56 18.78791 -134.25210 35107 ft 489 kts 37°
2026-04-21 18:56 18.84014 -134.20618 35106 ft 489 kts 37°
2026-04-21 18:57 18.89240 -134.16020 35105 ft 489 kts 37°
2026-04-21 18:57 18.94464 -134.11420 35110 ft 489 kts 37°
2026-04-21 18:58 18.99688 -134.06815 35108 ft 489 kts 37°
2026-04-21 18:58 19.04911 -134.02209 35115 ft 489 kts 37°
2026-04-21 18:59 19.10134 -133.97598 35109 ft 489 kts 37°
2026-04-21 18:59 19.15354 -133.92985 35113 ft 489 kts 37°
2026-04-21 19:00 19.20573 -133.88369 35111 ft 489 kts 37°
2026-04-21 19:00 19.25791 -133.83751 35115 ft 489 kts 37°
2026-04-21 19:01 19.31008 -133.79130 35117 ft 489 kts 37°
2026-04-21 19:01 19.36223 -133.74506 35113 ft 489 kts 37°
2026-04-21 19:02 19.41436 -133.69880 35114 ft 489 kts 37°
2026-04-21 19:02 19.46654 -133.65246 35118 ft 489 kts 37°
2026-04-21 19:03 19.51869 -133.60611 35120 ft 489 kts 37°
2026-04-21 19:03 19.57084 -133.55970 35117 ft 489 kts 37°
2026-04-21 19:04 19.62299 -133.51327 35118 ft 489 kts 37°
2026-04-21 19:04 19.67512 -133.46680 35123 ft 489 kts 37°
2026-04-21 19:05 19.72721 -133.42033 35133 ft 489 kts 37°
2026-04-21 19:05 19.77936 -133.37378 35126 ft 490 kts 37°
2026-04-21 19:06 19.83151 -133.32718 35125 ft 490 kts 37°
2026-04-21 19:06 19.88360 -133.28058 35132 ft 490 kts 37°
2026-04-21 19:07 19.93571 -133.23393 35130 ft 490 kts 37°
2026-04-21 19:07 19.98785 -133.18722 35131 ft 490 kts 37°
2026-04-21 19:08 20.03993 -133.14051 35125 ft 490 kts 37°
2026-04-21 19:08 20.09204 -133.09374 35131 ft 490 kts 37°
2026-04-21 19:09 20.14417 -133.04690 35131 ft 491 kts 37°
2026-04-21 19:09 20.19631 -133.00002 35131 ft 491 kts 37°
2026-04-21 19:10 20.24842 -132.95311 35136 ft 491 kts 37°
2026-04-21 19:10 20.30021 -132.90646 35135 ft 491 kts 37°
2026-04-21 19:11 20.35235 -132.85944 35139 ft 491 kts 37°
2026-04-21 19:11 20.40448 -132.81239 35145 ft 491 kts 37°
2026-04-21 19:12 20.44819 -132.77290 35138 ft 492 kts 37°
2026-04-21 19:12 20.50881 -132.71810 35139 ft 492 kts 37°
2026-04-21 19:13 20.56097 -132.67089 35138 ft 492 kts 37°
2026-04-21 19:13 20.61313 -132.62364 35138 ft 492 kts 37°
2026-04-21 19:14 20.66526 -132.57637 35143 ft 492 kts 37°
2026-04-21 19:14 20.71738 -132.52907 35142 ft 492 kts 37°
2026-04-21 19:15 20.76948 -132.48174 35143 ft 492 kts 37°
2026-04-21 19:15 20.82161 -132.43434 35143 ft 492 kts 37°
2026-04-21 19:16 20.87371 -132.38692 35149 ft 492 kts 37°
2026-04-21 19:16 20.92580 -132.33947 35143 ft 492 kts 37°
2026-04-21 19:17 21.00390 -132.26823 35143 ft 492 kts 37°
2026-04-21 19:17 21.05593 -132.22072 35143 ft 491 kts 37°
2026-04-21 19:18 21.10792 -132.17321 35154 ft 491 kts 37°
2026-04-21 19:18 21.15988 -132.12567 35147 ft 491 kts 37°
2026-04-21 19:19 21.21181 -132.07811 35150 ft 491 kts 37°
2026-04-21 19:19 21.26368 -132.03057 35149 ft 491 kts 37°
2026-04-21 19:20 21.31551 -131.98301 35151 ft 490 kts 37°
2026-04-21 19:20 21.36733 -131.93541 35153 ft 490 kts 37°
2026-04-21 19:21 21.41910 -131.88782 35153 ft 490 kts 37°
2026-04-21 19:21 21.46207 -131.84828 35152 ft 490 kts 37°
2026-04-21 19:22 21.51378 -131.80066 35155 ft 490 kts 37°
2026-04-21 19:22 21.56547 -131.75301 35157 ft 489 kts 37°
2026-04-21 19:23 21.61713 -131.70535 35153 ft 489 kts 37°
2026-04-21 19:23 21.66873 -131.65769 35156 ft 489 kts 37°
2026-04-21 19:24 21.72028 -131.61002 35155 ft 489 kts 37°
2026-04-21 19:24 21.77183 -131.56232 35166 ft 489 kts 37°
2026-04-21 19:25 21.82338 -131.51456 35159 ft 489 kts 37°
2026-04-21 19:25 21.87492 -131.46678 35158 ft 489 kts 37°
2026-04-21 19:26 21.92645 -131.41895 35157 ft 489 kts 37°
2026-04-21 19:26 21.97795 -131.37110 35158 ft 489 kts 37°
2026-04-21 19:27 22.02944 -131.32320 35161 ft 489 kts 37°
2026-04-21 19:27 22.08090 -131.27530 35157 ft 489 kts 37°
2026-04-21 19:28 22.13235 -131.22735 35156 ft 489 kts 37°
2026-04-21 19:28 22.18378 -131.17938 35166 ft 489 kts 37°
2026-04-21 19:29 22.23523 -131.13133 35160 ft 489 kts 37°
2026-04-21 19:29 22.28630 -131.08360 35159 ft 489 kts 37°
2026-04-21 19:30 22.33770 -131.03550 35161 ft 489 kts 37°
2026-04-21 19:30 22.38909 -130.98737 35159 ft 489 kts 37°
2026-04-21 19:31 22.44045 -130.93922 35177 ft 489 kts 37°
2026-04-21 19:31 22.49218 -130.89067 35165 ft 489 kts 37°
2026-04-21 19:32 22.54324 -130.84270 35165 ft 490 kts 37°
2026-04-21 19:32 22.59466 -130.79435 35166 ft 490 kts 37°
2026-04-21 19:33 22.64605 -130.74596 35162 ft 490 kts 37°
2026-04-21 19:33 22.69741 -130.69756 35167 ft 490 kts 37°
2026-04-21 19:34 22.74879 -130.64909 35166 ft 490 kts 37°
2026-04-21 19:34 22.80015 -130.60059 35176 ft 490 kts 36°
2026-04-21 19:35 22.87724 -130.52769 35169 ft 490 kts 36°
2026-04-21 19:36 22.92865 -130.47902 35170 ft 491 kts 36°
2026-04-21 19:36 22.98003 -130.43032 35170 ft 491 kts 36°
2026-04-21 19:37 23.03143 -130.38155 35173 ft 491 kts 36°
2026-04-21 19:37 23.08281 -130.33274 35170 ft 491 kts 36°
2026-04-21 19:38 23.13421 -130.28387 35190 ft 491 kts 36°
2026-04-21 19:38 23.18561 -130.23494 35178 ft 491 kts 36°
2026-04-21 19:39 23.23702 -130.18594 35170 ft 492 kts 36°
2026-04-21 19:39 23.28844 -130.13691 35171 ft 492 kts 36°
2026-04-21 19:40 23.33985 -130.08784 35170 ft 492 kts 36°
2026-04-21 19:40 23.39126 -130.03872 35171 ft 492 kts 36°
2026-04-21 19:41 23.44263 -129.98957 35174 ft 492 kts 36°
2026-04-21 19:41 23.49402 -129.94034 35180 ft 492 kts 36°
2026-04-21 19:42 23.54541 -129.89106 35168 ft 492 kts 36°
2026-04-21 19:42 23.59681 -129.84171 35172 ft 492 kts 36°
2026-04-21 19:43 23.64820 -129.79233 35176 ft 492 kts 36°
2026-04-21 19:43 23.69959 -129.74289 35171 ft 493 kts 36°
2026-04-21 19:44 23.75097 -129.69340 35171 ft 493 kts 36°
2026-04-21 19:44 23.80232 -129.64388 35172 ft 492 kts 36°
2026-04-21 19:45 23.85367 -129.59431 35180 ft 493 kts 36°
2026-04-21 19:45 23.90505 -129.54467 35176 ft 493 kts 36°
2026-04-21 19:46 23.95646 -129.49494 35174 ft 494 kts 36°
2026-04-21 19:46 24.00786 -129.44516 35173 ft 494 kts 36°
2026-04-21 19:47 24.05929 -129.39529 35173 ft 494 kts 36°
2026-04-21 19:47 24.11071 -129.34538 35188 ft 494 kts 36°
2026-04-21 19:48 24.16212 -129.29542 35177 ft 494 kts 36°
2026-04-21 19:48 24.21353 -129.24542 35180 ft 495 kts 36°
2026-04-21 19:49 24.26498 -129.19531 35177 ft 495 kts 36°
2026-04-21 19:49 24.31641 -129.14516 35176 ft 495 kts 36°
2026-04-21 19:50 24.35915 -129.10345 35179 ft 495 kts 36°
2026-04-21 19:50 24.41886 -129.04510 35176 ft 495 kts 36°
2026-04-21 19:51 24.47019 -128.99489 35177 ft 494 kts 36°
2026-04-21 19:51 24.52148 -128.94465 35176 ft 494 kts 36°
2026-04-21 19:52 24.57277 -128.89436 35182 ft 495 kts 36°
2026-04-21 19:52 24.62411 -128.84397 35181 ft 495 kts 36°
2026-04-21 19:53 24.67544 -128.79352 35177 ft 495 kts 36°
2026-04-21 19:53 24.72674 -128.74304 35178 ft 495 kts 36°
2026-04-21 19:54 24.77805 -128.69250 35179 ft 495 kts 36°
2026-04-21 19:54 24.82931 -128.64194 35182 ft 495 kts 37°
2026-04-21 19:55 24.88054 -128.59136 35175 ft 495 kts 37°
2026-04-21 19:55 24.93173 -128.54076 35183 ft 494 kts 37°
2026-04-21 19:56 24.98286 -128.49015 35179 ft 494 kts 37°
2026-04-21 19:56 25.03398 -128.43951 35178 ft 494 kts 37°
2026-04-21 19:57 25.08505 -128.38885 35180 ft 494 kts 37°
2026-04-21 19:57 25.13611 -128.33815 35178 ft 494 kts 37°
2026-04-21 19:58 25.18715 -128.28739 35177 ft 494 kts 37°
2026-04-21 19:58 25.23817 -128.23660 35189 ft 494 kts 37°
2026-04-21 19:59 25.28895 -128.18600 35193 ft 496 kts 37°
2026-04-21 19:59 25.34028 -128.13480 35185 ft 498 kts 36°
2026-04-21 20:00 25.39185 -128.08329 35192 ft 501 kts 37°
2026-04-21 20:00 25.44367 -128.03145 35193 ft 503 kts 37°
2026-04-21 20:01 25.49569 -127.97936 35187 ft 505 kts 37°
2026-04-21 20:01 25.54784 -127.92705 35189 ft 506 kts 36°
2026-04-21 20:02 25.59157 -127.88315 35207 ft 507 kts 36°
2026-04-21 20:02 25.65230 -127.82211 35185 ft 507 kts 36°
2026-04-21 20:03 25.70450 -127.76956 35181 ft 506 kts 36°
2026-04-21 20:03 25.75648 -127.71717 35181 ft 504 kts 36°
2026-04-21 20:04 25.80825 -127.66493 35182 ft 502 kts 36°
2026-04-21 20:04 25.85984 -127.61283 35183 ft 501 kts 36°
2026-04-21 20:05 25.91133 -127.56076 35185 ft 500 kts 36°
2026-04-21 20:05 25.96279 -127.50867 35199 ft 501 kts 35°
2026-04-21 20:06 26.01431 -127.45644 35192 ft 501 kts 35°
2026-04-21 20:06 26.06585 -127.40412 35185 ft 502 kts 35°
2026-04-21 20:07 26.11742 -127.35171 35189 ft 502 kts 35°
2026-04-21 20:07 26.16028 -127.30809 35186 ft 503 kts 35°
2026-04-21 20:08 26.21187 -127.25553 35184 ft 503 kts 35°
2026-04-21 20:08 26.26344 -127.20293 35190 ft 503 kts 35°
2026-04-21 20:09 26.31507 -127.15020 35190 ft 504 kts 35°
2026-04-21 20:09 26.36671 -127.09741 35188 ft 504 kts 35°
2026-04-21 20:10 26.41833 -127.04455 35189 ft 504 kts 35°
2026-04-21 20:10 26.46999 -126.99159 35192 ft 504 kts 35°
2026-04-21 20:11 26.52160 -126.93861 35190 ft 504 kts 35°
2026-04-21 20:11 26.57324 -126.88554 35182 ft 504 kts 35°
2026-04-21 20:12 26.62483 -126.83244 35189 ft 504 kts 35°
2026-04-21 20:12 26.67645 -126.77926 35195 ft 505 kts 35°
2026-04-21 20:13 26.72812 -126.72595 35198 ft 506 kts 35°
2026-04-21 20:13 26.77984 -126.67252 35189 ft 506 kts 35°
2026-04-21 20:14 26.83161 -126.61897 35187 ft 507 kts 35°
2026-04-21 20:14 26.88339 -126.56532 35188 ft 507 kts 35°
2026-04-21 20:15 26.93516 -126.51163 35188 ft 507 kts 35°
2026-04-21 20:15 26.98696 -126.45784 35190 ft 508 kts 35°
2026-04-21 20:16 27.03880 -126.40393 35194 ft 509 kts 35°
2026-04-21 20:16 27.09068 -126.34991 35192 ft 509 kts 35°
2026-04-21 20:17 27.14256 -126.29582 35193 ft 509 kts 35°
2026-04-21 20:17 27.19449 -126.24160 35194 ft 509 kts 35°
2026-04-21 20:18 27.24637 -126.18736 35190 ft 510 kts 35°
2026-04-21 20:18 27.29825 -126.13304 35194 ft 510 kts 35°
2026-04-21 20:19 27.35009 -126.07870 35191 ft 509 kts 35°
2026-04-21 20:19 27.40195 -126.02427 35194 ft 510 kts 35°
2026-04-21 20:20 27.45380 -125.96977 35184 ft 510 kts 35°
2026-04-21 20:20 27.50565 -125.91521 35188 ft 510 kts 35°
2026-04-21 20:21 27.55744 -125.86062 35186 ft 510 kts 35°
2026-04-21 20:21 27.60926 -125.80593 35187 ft 510 kts 35°
2026-04-21 20:22 27.66104 -125.75121 35198 ft 510 kts 35°
2026-04-21 20:22 27.73875 -125.66896 35193 ft 511 kts 34°
2026-04-21 20:23 27.79055 -125.61403 35194 ft 511 kts 34°
2026-04-21 20:23 27.84234 -125.55904 35185 ft 511 kts 34°
2026-04-21 20:24 27.89408 -125.50402 35190 ft 510 kts 35°
2026-04-21 20:24 27.94575 -125.44900 35188 ft 510 kts 34°
2026-04-21 20:25 27.99742 -125.39390 35186 ft 510 kts 34°
2026-04-21 20:25 28.04903 -125.33880 35187 ft 510 kts 34°
2026-04-21 20:26 28.10067 -125.28359 35187 ft 511 kts 34°
2026-04-21 20:26 28.15219 -125.22842 35190 ft 509 kts 35°
2026-04-21 20:27 28.20357 -125.17332 35180 ft 508 kts 35°
2026-04-21 20:27 28.25479 -125.11832 35181 ft 506 kts 35°
2026-04-21 20:28 28.30587 -125.06340 35182 ft 506 kts 35°
2026-04-21 20:28 28.35694 -125.00843 35185 ft 506 kts 35°
2026-04-21 20:29 28.40800 -124.95340 35194 ft 506 kts 35°
2026-04-21 20:29 28.45906 -124.89828 35183 ft 506 kts 35°
2026-04-21 20:30 28.51006 -124.84313 35185 ft 506 kts 35°
2026-04-21 20:30 28.56105 -124.78791 35185 ft 506 kts 35°
2026-04-21 20:31 28.61204 -124.73263 35191 ft 506 kts 35°
2026-04-21 20:31 28.66298 -124.67732 35187 ft 506 kts 35°
2026-04-21 20:32 28.71386 -124.62201 35179 ft 505 kts 35°
2026-04-21 20:32 28.76467 -124.56668 35206 ft 505 kts 36°
2026-04-21 20:33 28.81538 -124.51138 35190 ft 504 kts 36°
2026-04-21 20:33 28.86596 -124.45614 35191 ft 503 kts 36°
2026-04-21 20:34 28.91635 -124.40103 35177 ft 501 kts 36°
2026-04-21 20:34 28.96658 -124.34603 35178 ft 500 kts 36°
2026-04-21 20:35 29.01671 -124.29107 35177 ft 499 kts 36°
2026-04-21 20:35 29.06682 -124.23606 35178 ft 500 kts 36°
2026-04-21 20:36 29.11696 -124.18094 35184 ft 500 kts 36°
2026-04-21 20:36 29.16709 -124.12573 35182 ft 500 kts 37°
2026-04-21 20:37 29.21686 -124.07083 35175 ft 500 kts 37°
2026-04-21 20:37 29.26686 -124.01561 35176 ft 499 kts 37°
2026-04-21 20:38 29.31677 -123.96041 35176 ft 498 kts 37°
2026-04-21 20:38 29.36660 -123.90522 35176 ft 498 kts 37°
2026-04-21 20:39 29.41642 -123.84998 35174 ft 498 kts 37°
2026-04-21 20:39 29.46620 -123.79468 35175 ft 498 kts 37°
2026-04-21 20:40 29.51610 -123.73919 35176 ft 500 kts 38°
2026-04-21 20:40 29.56611 -123.68347 35183 ft 501 kts 38°
2026-04-21 20:41 29.61623 -123.62756 35174 ft 503 kts 38°
2026-04-21 20:41 29.66647 -123.57143 35172 ft 504 kts 38°
2026-04-21 20:42 29.71677 -123.51514 35172 ft 505 kts 38°
2026-04-21 20:42 29.76711 -123.45873 35169 ft 505 kts 38°
2026-04-21 20:43 29.81748 -123.40221 35169 ft 506 kts 38°
2026-04-21 20:43 29.86791 -123.34553 35174 ft 507 kts 38°
2026-04-21 20:44 29.91841 -123.28870 35169 ft 508 kts 38°
2026-04-21 20:44 29.96891 -123.23177 35168 ft 508 kts 38°
2026-04-21 20:45 30.01944 -123.17471 35160 ft 508 kts 38°
2026-04-21 20:45 30.06995 -123.11760 35171 ft 508 kts 38°
2026-04-21 20:46 30.12041 -123.06046 35162 ft 508 kts 38°
2026-04-21 20:46 30.17078 -123.00332 35157 ft 507 kts 38°
2026-04-21 20:47 30.22109 -122.94618 35169 ft 507 kts 38°
2026-04-21 20:47 30.27132 -122.88904 35164 ft 506 kts 38°
2026-04-21 20:48 30.32143 -122.83195 35157 ft 505 kts 38°
2026-04-21 20:48 30.37111 -122.77523 35158 ft 505 kts 38°
2026-04-21 20:49 30.42139 -122.71768 35156 ft 505 kts 38°
2026-04-21 20:49 30.47131 -122.66044 35156 ft 505 kts 38°
2026-04-21 20:50 30.52092 -122.60347 35156 ft 506 kts 39°
2026-04-21 20:50 30.57094 -122.54594 35159 ft 507 kts 39°
2026-04-21 20:51 30.62101 -122.48826 35159 ft 507 kts 39°
2026-04-21 20:51 30.67109 -122.43048 35154 ft 508 kts 39°
2026-04-21 20:52 30.71306 -122.38199 35156 ft 508 kts 39°
2026-04-21 20:52 30.76309 -122.32411 35151 ft 508 kts 39°
2026-04-21 20:53 30.81280 -122.26650 35154 ft 508 kts 39°
2026-04-21 20:53 30.86280 -122.20847 35152 ft 508 kts 39°
2026-04-21 20:54 30.91283 -122.15033 35154 ft 509 kts 39°
2026-04-21 20:54 30.96293 -122.09200 35153 ft 510 kts 39°
2026-04-21 20:55 31.01308 -122.03353 35156 ft 511 kts 39°
2026-04-21 20:55 31.06330 -121.97487 35145 ft 511 kts 39°
2026-04-21 20:56 31.11355 -121.91609 35145 ft 512 kts 39°
2026-04-21 20:56 31.16382 -121.85719 35145 ft 512 kts 39°
2026-04-21 20:57 31.21407 -121.79822 35141 ft 512 kts 39°
2026-04-21 20:57 31.26434 -121.73914 35146 ft 513 kts 39°
2026-04-21 20:58 31.31470 -121.67985 35147 ft 514 kts 39°
2026-04-21 20:58 31.36509 -121.62043 35138 ft 514 kts 39°
2026-04-21 20:59 31.41547 -121.56091 35140 ft 515 kts 39°
2026-04-21 20:59 31.46583 -121.50133 35141 ft 515 kts 40°
2026-04-21 21:00 31.51620 -121.44164 35142 ft 515 kts 40°
2026-04-21 21:00 31.56354 -121.37844 35121 ft 525 kts 58°
2026-04-21 21:01 31.59229 -121.29956 35142 ft 527 kts 67°
2026-04-21 21:01 31.61863 -121.21924 35141 ft 528 kts 68°
2026-04-21 21:02 31.64556 -121.13904 35162 ft 529 kts 67°
2026-04-21 21:02 31.67311 -121.05890 35140 ft 530 kts 66°
2026-04-21 21:03 31.70082 -120.97859 35136 ft 531 kts 66°
2026-04-21 21:03 31.72848 -120.89808 35129 ft 532 kts 67°
2026-04-21 21:04 31.75608 -120.81743 35131 ft 532 kts 67°
2026-04-21 21:04 31.78362 -120.73671 35130 ft 532 kts 67°
2026-04-21 21:05 31.81112 -120.65591 35131 ft 532 kts 67°
2026-04-21 21:05 31.83838 -120.57567 35129 ft 532 kts 67°
2026-04-21 21:06 31.86591 -120.49439 35128 ft 531 kts 67°
2026-04-21 21:06 31.89320 -120.41364 35128 ft 531 kts 67°
2026-04-21 21:07 31.92023 -120.33346 35128 ft 530 kts 67°
2026-04-21 21:07 31.95122 -120.25516 35109 ft 525 kts 49°
2026-04-21 21:08 31.99999 -120.19242 35132 ft 519 kts 41°
2026-04-21 21:08 32.05026 -120.13133 35124 ft 520 kts 41°
2026-04-21 21:09 32.10005 -120.06944 35120 ft 521 kts 42°
2026-04-21 21:09 32.14945 -120.00695 35125 ft 521 kts 43°
2026-04-21 21:10 32.19878 -119.94425 35123 ft 521 kts 43°
2026-04-21 21:10 32.24812 -119.88152 35126 ft 521 kts 43°
2026-04-21 21:11 32.29747 -119.81873 35123 ft 521 kts 43°
2026-04-21 21:11 32.34681 -119.75587 35120 ft 522 kts 43°
2026-04-21 21:12 32.39609 -119.69295 35121 ft 522 kts 43°
2026-04-21 21:12 32.44540 -119.62988 35119 ft 522 kts 43°
2026-04-21 21:13 32.49466 -119.56679 35117 ft 522 kts 43°
2026-04-21 21:13 32.54391 -119.50361 35129 ft 522 kts 43°
2026-04-21 21:14 32.56865 -119.47185 34520 ft 527 kts 43°
2026-04-21 21:14 32.59352 -119.43989 33721 ft 528 kts 43°
2026-04-21 21:14 32.61841 -119.40786 32854 ft 529 kts 44°
2026-04-21 21:14 32.64327 -119.37580 32445 ft 521 kts 44°
2026-04-21 21:15 32.66771 -119.34424 31569 ft 523 kts 44°
2026-04-21 21:15 32.69229 -119.31251 30911 ft 521 kts 44°
2026-04-21 21:15 32.71681 -119.28084 30167 ft 521 kts 44°
2026-04-21 21:15 32.74126 -119.24924 29349 ft 518 kts 44°
2026-04-21 21:16 32.76552 -119.21783 28623 ft 514 kts 45°
2026-04-21 21:16 32.78955 -119.18670 27922 ft 509 kts 45°
2026-04-21 21:16 32.81337 -119.15581 27233 ft 504 kts 45°
2026-04-21 21:16 32.83691 -119.12526 26564 ft 499 kts 45°
2026-04-21 21:17 32.85995 -119.09534 25911 ft 494 kts 45°
2026-04-21 21:17 32.88335 -119.06493 25254 ft 489 kts 45°
2026-04-21 21:17 32.90619 -119.03522 24614 ft 485 kts 44°
2026-04-21 21:17 32.92858 -119.00608 23948 ft 482 kts 44°
2026-04-21 21:18 32.95137 -118.97639 23217 ft 478 kts 44°
2026-04-21 21:18 32.97368 -118.94731 22524 ft 472 kts 45°
2026-04-21 21:18 32.99568 -118.91860 21883 ft 467 kts 45°
2026-04-21 21:18 33.01747 -118.89015 21245 ft 461 kts 45°
2026-04-21 21:19 33.03886 -118.86217 20590 ft 451 kts 45°
2026-04-21 21:19 33.05971 -118.83487 19933 ft 441 kts 44°
2026-04-21 21:19 33.08012 -118.80815 19345 ft 431 kts 44°
2026-04-21 21:19 33.10009 -118.78200 18767 ft 422 kts 44°
2026-04-21 21:20 33.11966 -118.75635 18123 ft 415 kts 44°
2026-04-21 21:20 33.13888 -118.73116 17485 ft 407 kts 44°
2026-04-21 21:20 33.15773 -118.70643 16881 ft 398 kts 44°
2026-04-21 21:20 33.17616 -118.68222 16323 ft 390 kts 44°
2026-04-21 21:21 33.19381 -118.65871 16042 ft 378 kts 45°
2026-04-21 21:21 33.21090 -118.63490 15954 ft 374 kts 46°
2026-04-21 21:21 33.22805 -118.61071 15799 ft 396 kts 47°
2026-04-21 21:21 33.24603 -118.58529 15674 ft 403 kts 47°
2026-04-21 21:22 33.26437 -118.55935 15584 ft 403 kts 46°
2026-04-21 21:22 33.28246 -118.53382 15477 ft 403 kts 46°
2026-04-21 21:22 33.30067 -118.50819 15375 ft 404 kts 46°
2026-04-21 21:22 33.31882 -118.48263 15251 ft 403 kts 47°
2026-04-21 21:23 33.33412 -118.45454 15115 ft 406 kts 67°
2026-04-21 21:23 33.34107 -118.42256 15032 ft 403 kts 87°
2026-04-21 21:23 33.34062 -118.38935 14952 ft 397 kts 97°
2026-04-21 21:23 33.33853 -118.35646 14834 ft 396 kts 98°
2026-04-21 21:24 33.33624 -118.32374 14728 ft 394 kts 98°
2026-04-21 21:24 33.33405 -118.29109 14605 ft 393 kts 98°
2026-04-21 21:24 33.33205 -118.25867 14494 ft 390 kts 97°
2026-04-21 21:24 33.33016 -118.22641 14394 ft 388 kts 97°
2026-04-21 21:25 33.32834 -118.19426 14294 ft 387 kts 97°
2026-04-21 21:25 33.32652 -118.16215 14197 ft 387 kts 97°
2026-04-21 21:25 33.32503 -118.13009 14104 ft 388 kts 91°
2026-04-21 21:25 33.33033 -118.09830 13963 ft 394 kts 69°
2026-04-21 21:26 33.34434 -118.07011 13401 ft 396 kts 46°
2026-04-21 21:26 33.36318 -118.04659 12934 ft 387 kts 43°
2026-04-21 21:26 33.38200 -118.02415 12460 ft 377 kts 41°
2026-04-21 21:26 33.40306 -118.00664 12015 ft 365 kts 20°
2026-04-21 21:27 33.42695 -117.99822 11605 ft 354 kts
2026-04-21 21:27 33.45109 -117.99763 11229 ft 343 kts 353°
2026-04-21 21:27 33.47492 -117.99904 10849 ft 341 kts 352°
2026-04-21 21:27 33.49816 -118.00062 10466 ft 329 kts 352°
2026-04-21 21:28 33.52069 -118.00200 10103 ft 319 kts 352°
2026-04-21 21:28 33.54236 -118.00314 9912 ft 302 kts 353°
2026-04-21 21:28 33.58423 -118.00519 9067 ft 299 kts 353°
2026-04-21 21:29 33.60493 -118.00614 8701 ft 296 kts 353°
2026-04-21 21:29 33.62546 -118.00706 8358 ft 294 kts 353°
2026-04-21 21:29 33.64577 -118.00805 8032 ft 290 kts 350°
2026-04-21 21:29 33.66501 -118.01244 7872 ft 275 kts 339°
2026-04-21 21:30 33.68328 -118.01904 7677 ft 274 kts 336°
2026-04-21 21:30 33.70158 -118.02595 7364 ft 277 kts 337°
2026-04-21 21:30 33.71993 -118.03265 7067 ft 274 kts 338°
2026-04-21 21:30 33.73809 -118.03905 6779 ft 270 kts 338°
2026-04-21 21:31 33.75607 -118.04531 6462 ft 268 kts 338°
2026-04-21 21:31 33.77236 -118.05463 6448 ft 255 kts 329°
2026-04-21 21:31 33.78861 -118.06335 6714 ft 264 kts 333°
2026-04-21 21:31 33.80626 -118.07087 7021 ft 272 kts 335°
2026-04-21 21:32 33.82411 -118.07807 6999 ft 267 kts 335°
2026-04-21 21:32 33.84124 -118.08512 6897 ft 252 kts 334°
2026-04-21 21:32 33.85724 -118.09187 6724 ft 237 kts 334°
2026-04-21 21:32 33.87265 -118.09849 6344 ft 234 kts 334°
2026-04-21 21:33 33.88796 -118.10509 5940 ft 233 kts 336°
2026-04-21 21:33 33.90373 -118.10881 5429 ft 231 kts 353°
2026-04-21 21:33 33.91979 -118.10950 4734 ft 229 kts 354°
2026-04-21 21:33 33.93384 -118.11404 4476 ft 194 kts 321°
2026-04-21 21:34 33.94434 -118.12358 4239 ft 187 kts 317°
2026-04-21 21:34 33.95437 -118.13372 4070 ft 187 kts 303°
2026-04-21 21:34 33.95818 -118.14788 3927 ft 180 kts 267°
2026-04-21 21:34 33.95826 -118.16300 3680 ft 180 kts 265°
2026-04-21 21:35 33.95801 -118.17792 3462 ft 177 kts 262°
2026-04-21 21:35 33.95695 -118.19281 3234 ft 181 kts 260°
2026-04-21 21:35 33.95551 -118.20792 2960 ft 180 kts 259°
2026-04-21 21:35 33.95406 -118.22217 2747 ft 167 kts 259°
2026-04-21 21:36 33.95306 -118.23164 2616 ft 178 kts 259°
2026-04-21 21:36 33.95152 -118.24638 2358 ft 173 kts 258°
2026-04-21 21:36 33.95013 -118.25991 2141 ft 151 kts 258°
2026-04-21 21:36 33.94891 -118.27163 1943 ft 132 kts 258°
2026-04-21 21:37 33.94783 -118.28203 1761 ft 122 kts 257°
2026-04-21 21:37 33.94675 -118.29214 1661 ft 123 kts 257°
2026-04-21 21:37 33.94550 -118.30263 1495 ft 128 kts 258°
2026-04-21 21:37 33.94433 -118.31313 1317 ft 125 kts 259°
2026-04-21 21:38 33.94321 -118.32330 1115 ft 121 kts 259°
2026-04-21 21:38 33.94218 -118.33362 924 ft 127 kts 260°
2026-04-21 21:38 33.94115 -118.34421 826 ft 128 kts 262°
2026-04-21 21:38 33.94018 -118.35500 642 ft 132 kts 261°
2026-04-21 21:39 33.93917 -118.36614 402 ft 135 kts 260°
2026-04-21 21:39 33.93799 -118.37744 253 ft 134 kts 258°
2026-04-21 21:39 33.93683 -118.38809 104 ft 120 kts 258°
2026-04-21 21:39 33.93580 -118.39682 94 ft 88 kts 262°
2026-04-21 21:40 33.93535 -118.40273 93 ft 53 kts 265°
2026-04-21 21:40 33.93508 -118.40578 95 ft 27 kts 263°
2026-04-21 21:40 33.93421 -118.40713 93 ft 22 kts 166°
2026-04-21 21:40 33.93378 -118.40562 92 ft 21 kts 83°
2026-04-21 21:41 33.93396 -118.40389 92 ft 21 kts 82°
2026-04-21 21:41 33.93415 -118.40221 92 ft 20 kts 83°
2026-04-21 21:41 33.93432 -118.40058 92 ft 19 kts 83°
2026-04-21 21:41 33.93448 -118.39899 92 ft 19 kts 83°
2026-04-21 21:42 33.93426 -118.39815 95 ft 7 kts 173°
2026-04-21 21:42 33.93396 -118.39851 92 ft 7 kts 243°
2026-04-21 21:42 33.93376 -118.39904 93 ft 7 kts 256°
2026-04-21 21:42 33.93348 -118.39931 92 ft 4 kts 138°
2026-04-21 21:43 33.93348 -118.39922 92 ft 0 kts 82°